Time,TemperatureF,DewpointF,PressureIn,WindDirection,WindDirectionDegrees,WindSpeedMPH,WindSpeedGustMPH,Humidity,HourlyPrecipIn,Conditions,Clouds,dailyrainin,SoftwareType,DateUTC
2013-03-17 00:00:00,64.7,39.2,29.83,SW,225,0.0,0.0,39,0.00,,---,0.00,VWS V14.01,2013-03-17 04:00:00,
2013-03-17 00:05:00,64.5,39.0,29.83,SW,225,0.0,0.0,39,0.00,,---,0.00,VWS V14.01,2013-03-17 04:05:00,
2013-03-17 00:06:00,64.5,39.0,29.83,SW,225,0.0,0.0,39,0.00,,---,0.00,VWS V14.01,2013-03-17 04:06:00,
2013-03-17 00:10:00,64.5,39.0,29.82,SW,225,0.0,0.0,39,0.00,,---,0.00,VWS V14.01,2013-03-17 04:10:00,
2013-03-17 00:11:00,64.5,39.7,29.82,SW,225,0.0,0.0,40,0.00,,---,0.00,VWS V14.01,2013-03-17 04:11:00,
2013-03-17 00:15:00,64.3,39.5,29.83,SW,225,0.0,0.0,40,0.00,,---,0.00,VWS V14.01,2013-03-17 04:15:00,
2013-03-17 00:16:00,64.3,39.5,29.82,SW,225,0.0,0.0,40,0.00,,---,0.00,VWS V14.01,2013-03-17 04:16:00,
2013-03-17 00:20:00,64.3,39.5,29.83,SW,225,0.0,0.0,40,0.00,,---,0.00,VWS V14.01,2013-03-17 04:20:00,
2013-03-17 00:21:00,64.0,39.2,29.83,SSW,202,0.0,0.0,40,0.00,,---,0.00,VWS V14.01,2013-03-17 04:21:00,
2013-03-17 00:22:00,64.0,39.2,29.82,SSW,202,0.0,0.0,40,0.00,,---,0.00,VWS V14.01,2013-03-17 04:22:00,
2013-03-17 00:26:00,64.0,39.2,29.82,SSW,202,0.0,0.0,40,0.00,,---,0.00,VWS V14.01,2013-03-17 04:26:00,
2013-03-17 00:27:00,64.0,39.2,29.82,SSW,202,0.0,0.0,40,0.00,,---,0.00,VWS V14.01,2013-03-17 04:27:00,
2013-03-17 00:28:00,64.0,39.2,29.82,SSW,202,0.0,0.0,40,0.00,,---,0.00,VWS V14.01,2013-03-17 04:28:00,
2013-03-17 00:31:00,64.0,39.2,29.82,SSW,202,0.0,0.0,40,0.00,,---,0.00,VWS V14.01,2013-03-17 04:31:00,
2013-03-17 00:32:00,63.8,39.0,29.82,SSW,202,0.0,0.0,40,0.00,,---,0.00,VWS V14.01,2013-03-17 04:32:00,
2013-03-17 00:33:00,63.8,39.0,29.82,SSW,202,0.0,0.0,40,0.00,,---,0.00,VWS V14.01,2013-03-17 04:33:00,
2013-03-17 00:36:00,63.8,39.0,29.82,SSW,202,2.6,2.6,40,0.00,,---,0.00,VWS V14.01,2013-03-17 04:36:00,
2013-03-17 00:37:00,64.0,39.2,29.82,SSW,202,2.6,2.6,40,0.00,,---,0.00,VWS V14.01,2013-03-17 04:37:00,
2013-03-17 00:38:00,63.6,38.9,29.82,SSW,202,0.0,2.6,40,0.00,,---,0.00,VWS V14.01,2013-03-17 04:38:00,
2013-03-17 00:41:00,63.6,38.9,29.82,SSW,202,0.0,0.0,40,0.00,,---,0.00,VWS V14.01,2013-03-17 04:41:00,
2013-03-17 00:42:00,63.6,38.9,29.82,SSW,202,0.0,0.0,40,0.00,,---,0.00,VWS V14.01,2013-03-17 04:42:00,
2013-03-17 00:43:00,63.6,38.9,29.82,SSW,202,0.0,0.0,40,0.00,,---,0.00,VWS V14.01,2013-03-17 04:43:00,
2013-03-17 00:44:00,63.6,38.9,29.82,SSW,202,0.0,0.0,40,0.00,,---,0.00,VWS V14.01,2013-03-17 04:44:00,
2013-03-17 00:47:00,63.3,38.6,29.82,SSW,202,0.0,0.0,40,0.00,,---,0.00,VWS V14.01,2013-03-17 04:47:00,
2013-03-17 00:48:00,63.3,38.6,29.82,SSW,202,0.0,0.0,40,0.00,,---,0.00,VWS V14.01,2013-03-17 04:48:00,
2013-03-17 00:49:00,63.4,38.7,29.82,SSW,202,0.0,0.0,40,0.00,,---,0.00,VWS V14.01,2013-03-17 04:49:00,
2013-03-17 00:52:00,63.3,38.6,29.82,SSW,202,0.0,0.0,40,0.00,,---,0.00,VWS V14.01,2013-03-17 04:52:00,
2013-03-17 00:53:00,63.3,38.6,29.82,SSW,202,0.0,0.0,40,0.00,,---,0.00,VWS V14.01,2013-03-17 04:53:00,
2013-03-17 00:54:00,63.4,38.7,29.82,SSW,202,0.0,0.0,40,0.00,,---,0.00,VWS V14.01,2013-03-17 04:54:00,
2013-03-17 00:58:00,63.3,38.6,29.81,South,180,0.0,0.0,40,0.00,,---,0.00,VWS V14.01,2013-03-17 04:58:00,
2013-03-17 00:59:00,63.3,38.6,29.81,South,180,0.0,0.0,40,0.00,,---,0.00,VWS V14.01,2013-03-17 04:59:00,
2013-03-17 01:03:00,63.3,38.6,29.82,SSW,202,2.0,2.0,40,0.00,,---,0.00,VWS V14.01,2013-03-17 05:03:00,
2013-03-17 01:04:00,63.3,38.6,29.82,SSW,202,2.0,2.0,40,0.00,,---,0.00,VWS V14.01,2013-03-17 05:04:00,
2013-03-17 01:08:00,63.3,38.6,29.82,SSW,202,2.0,2.0,40,0.00,,---,0.00,VWS V14.01,2013-03-17 05:08:00,
2013-03-17 01:09:00,63.3,38.6,29.82,SSW,202,2.0,2.0,40,0.00,,---,0.00,VWS V14.01,2013-03-17 05:09:00,
2013-03-17 01:10:00,63.3,38.6,29.82,SSW,202,2.0,2.0,40,0.00,,---,0.00,VWS V14.01,2013-03-17 05:10:00,
2013-03-17 01:14:00,63.3,38.6,29.82,South,180,0.0,2.0,40,0.00,,---,0.00,VWS V14.01,2013-03-17 05:14:00,
2013-03-17 01:15:00,63.3,38.0,29.82,SSW,202,0.0,0.0,39,0.00,,---,0.00,VWS V14.01,2013-03-17 05:15:00,
2013-03-17 01:19:00,63.1,38.4,29.82,SSW,202,0.0,1.7,40,0.00,,---,0.00,VWS V14.01,2013-03-17 05:19:00,
2013-03-17 01:20:00,63.1,38.4,29.82,SSW,202,0.0,1.7,40,0.00,,---,0.00,VWS V14.01,2013-03-17 05:20:00,
2013-03-17 01:21:00,63.1,38.4,29.82,SSW,202,0.0,0.0,40,0.00,,---,0.00,VWS V14.01,2013-03-17 05:21:00,
2013-03-17 01:24:00,63.3,38.6,29.82,South,180,0.0,0.0,40,0.00,,---,0.00,VWS V14.01,2013-03-17 05:24:00,
2013-03-17 01:25:00,63.3,38.6,29.82,South,180,0.0,0.0,40,0.00,,---,0.00,VWS V14.01,2013-03-17 05:25:00,
2013-03-17 01:27:00,63.1,38.4,29.82,South,180,2.9,2.9,40,0.00,,---,0.00,VWS V14.01,2013-03-17 05:27:00,
2013-03-17 01:29:00,62.9,38.2,29.82,South,180,2.9,2.9,40,0.00,,---,0.00,VWS V14.01,2013-03-17 05:29:00,
2013-03-17 01:30:00,62.9,38.2,29.82,SSE,158,0.0,0.0,40,0.00,,---,0.00,VWS V14.01,2013-03-17 05:30:00,
2013-03-17 01:32:00,62.9,38.2,29.82,SSE,158,0.0,0.0,40,0.00,,---,0.00,VWS V14.01,2013-03-17 05:32:00,
2013-03-17 01:34:00,62.9,38.2,29.82,SSE,158,0.0,0.0,40,0.00,,---,0.00,VWS V14.01,2013-03-17 05:34:00,
2013-03-17 01:35:00,62.9,38.2,29.82,SSE,158,0.0,0.0,40,0.00,,---,0.00,VWS V14.01,2013-03-17 05:35:00,
2013-03-17 01:37:00,62.9,38.2,29.82,South,180,0.0,0.0,40,0.00,,---,0.00,VWS V14.01,2013-03-17 05:37:00,
2013-03-17 01:39:00,62.9,38.2,29.82,South,180,0.0,0.0,40,0.00,,---,0.00,VWS V14.01,2013-03-17 05:39:00,
2013-03-17 01:40:00,62.7,38.0,29.81,SSW,202,0.0,0.0,40,0.00,,---,0.00,VWS V14.01,2013-03-17 05:40:00,
2013-03-17 01:41:00,62.7,38.0,29.82,SSW,202,0.0,0.0,40,0.00,,---,0.00,VWS V14.01,2013-03-17 05:41:00,
2013-03-17 01:42:00,62.7,38.0,29.81,SSE,158,0.0,0.0,40,0.00,,---,0.00,VWS V14.01,2013-03-17 05:42:00,
2013-03-17 01:44:00,62.7,38.0,29.81,SSE,158,0.0,0.0,40,0.00,,---,0.00,VWS V14.01,2013-03-17 05:44:00,
2013-03-17 01:46:00,62.7,38.0,29.81,South,180,0.0,0.0,40,0.00,,---,0.00,VWS V14.01,2013-03-17 05:46:00,
2013-03-17 01:48:00,62.5,37.9,29.81,South,180,0.0,0.0,40,0.00,,---,0.00,VWS V14.01,2013-03-17 05:48:00,
2013-03-17 01:50:00,62.7,38.0,29.81,SSE,158,2.6,2.6,40,0.00,,---,0.00,VWS V14.01,2013-03-17 05:50:00,
2013-03-17 01:52:00,62.5,37.9,29.81,South,180,0.0,2.6,40,0.00,,---,0.00,VWS V14.01,2013-03-17 05:52:00,
2013-03-17 01:53:00,62.4,37.8,29.81,South,180,4.6,4.6,40,0.00,,---,0.00,VWS V14.01,2013-03-17 05:53:00,
2013-03-17 01:55:00,62.5,37.9,29.81,South,180,0.0,4.6,40,0.00,,---,0.00,VWS V14.01,2013-03-17 05:55:00,
2013-03-17 01:57:00,62.5,37.9,29.81,SW,225,3.5,3.5,40,0.00,,---,0.00,VWS V14.01,2013-03-17 05:57:00,
2013-03-17 01:58:00,62.5,37.9,29.81,SW,225,3.5,3.5,40,0.00,,---,0.00,VWS V14.01,2013-03-17 05:58:00,
2013-03-17 02:00:00,62.4,37.8,29.81,South,180,0.0,0.0,40,0.00,,---,0.00,VWS V14.01,2013-03-17 06:00:00,
2013-03-17 02:02:00,62.4,37.8,29.81,South,180,0.0,0.0,40,0.00,,---,0.00,VWS V14.01,2013-03-17 06:02:00,
2013-03-17 02:03:00,62.4,37.8,29.81,South,180,0.0,0.0,40,0.00,,---,0.00,VWS V14.01,2013-03-17 06:03:00,
2013-03-17 02:04:00,62.4,37.8,29.81,SW,225,0.0,0.0,40,0.00,,---,0.00,VWS V14.01,2013-03-17 06:04:00,
2013-03-17 02:06:00,62.2,37.6,29.82,WSW,248,0.0,0.0,40,0.00,,---,0.00,VWS V14.01,2013-03-17 06:06:00,
2013-03-17 02:07:00,62.2,37.6,29.82,WSW,248,0.0,0.0,40,0.00,,---,0.00,VWS V14.01,2013-03-17 06:07:00,
2013-03-17 02:08:00,62.5,37.9,29.82,SSW,202,0.0,0.0,40,0.00,,---,0.00,VWS V14.01,2013-03-17 06:08:00,
2013-03-17 02:09:00,62.5,37.9,29.82,SSW,202,0.0,0.0,40,0.00,,---,0.00,VWS V14.01,2013-03-17 06:09:00,
2013-03-17 02:11:00,62.4,37.8,29.82,SSW,202,0.0,0.0,40,0.00,,---,0.00,VWS V14.01,2013-03-17 06:11:00,
2013-03-17 02:12:00,62.5,37.9,29.82,SSW,202,0.0,0.0,40,0.00,,---,0.00,VWS V14.01,2013-03-17 06:12:00,
2013-03-17 02:14:00,62.5,37.9,29.81,SSW,202,0.0,0.0,40,0.00,,---,0.00,VWS V14.01,2013-03-17 06:14:00,
2013-03-17 02:16:00,62.5,37.9,29.82,SSW,202,0.0,0.0,40,0.00,,---,0.00,VWS V14.01,2013-03-17 06:16:00,
2013-03-17 02:18:00,62.5,37.9,29.82,West,270,0.0,0.0,40,0.00,,---,0.00,VWS V14.01,2013-03-17 06:18:00,
2013-03-17 02:19:00,62.5,37.9,29.82,SW,225,0.0,0.0,40,0.00,,---,0.00,VWS V14.01,2013-03-17 06:19:00,
2013-03-17 02:20:00,62.5,37.9,29.81,SW,225,0.0,0.0,40,0.00,,---,0.00,VWS V14.01,2013-03-17 06:20:00,
2013-03-17 02:21:00,62.5,37.9,29.82,WSW,248,0.0,0.0,40,0.00,,---,0.00,VWS V14.01,2013-03-17 06:21:00,
2013-03-17 02:23:00,62.5,37.2,29.82,SW,225,0.0,0.0,39,0.00,,---,0.00,VWS V14.01,2013-03-17 06:23:00,
2013-03-17 02:24:00,62.5,37.2,29.81,SW,225,0.0,0.0,39,0.00,,---,0.00,VWS V14.01,2013-03-17 06:24:00,
2013-03-17 02:26:00,62.5,37.2,29.81,SW,225,0.0,0.0,39,0.00,,---,0.00,VWS V14.01,2013-03-17 06:26:00,
2013-03-17 02:28:00,62.5,37.2,29.81,WSW,248,0.0,0.0,39,0.00,,---,0.00,VWS V14.01,2013-03-17 06:28:00,
2013-03-17 02:30:00,62.4,37.1,29.81,WSW,248,0.0,0.0,39,0.00,,---,0.00,VWS V14.01,2013-03-17 06:30:00,
2013-03-17 02:31:00,62.4,37.1,29.81,WSW,248,0.0,0.0,39,0.00,,---,0.00,VWS V14.01,2013-03-17 06:31:00,
2013-03-17 02:32:00,62.5,37.2,29.81,WSW,248,0.0,0.0,39,0.00,,---,0.00,VWS V14.01,2013-03-17 06:32:00,
2013-03-17 02:33:00,62.5,37.2,29.81,WSW,248,0.0,0.0,39,0.00,,---,0.00,VWS V14.01,2013-03-17 06:33:00,
2013-03-17 02:35:00,62.5,37.2,29.82,WSW,248,0.0,0.0,39,0.00,,---,0.00,VWS V14.01,2013-03-17 06:35:00,
2013-03-17 02:36:00,62.4,37.1,29.82,WSW,248,0.0,0.0,39,0.00,,---,0.00,VWS V14.01,2013-03-17 06:36:00,
2013-03-17 02:37:00,62.4,37.1,29.81,WSW,248,0.0,0.0,39,0.00,,---,0.00,VWS V14.01,2013-03-17 06:37:00,
2013-03-17 02:38:00,62.4,37.1,29.82,WSW,248,0.0,0.0,39,0.00,,---,0.00,VWS V14.01,2013-03-17 06:38:00,
2013-03-17 02:40:00,62.5,37.2,29.82,WSW,248,0.0,0.0,39,0.00,,---,0.00,VWS V14.01,2013-03-17 06:40:00,
2013-03-17 02:42:00,62.4,37.1,29.82,West,270,0.0,0.0,39,0.00,,---,0.00,VWS V14.01,2013-03-17 06:42:00,
2013-03-17 02:43:00,62.4,37.1,29.82,West,270,0.0,0.0,39,0.00,,---,0.00,VWS V14.01,2013-03-17 06:43:00,
2013-03-17 02:45:00,62.4,37.1,29.82,West,270,0.0,0.0,39,0.00,,---,0.00,VWS V14.01,2013-03-17 06:45:00,
2013-03-17 02:47:00,62.2,37.0,29.82,WSW,248,0.0,0.0,39,0.00,,---,0.00,VWS V14.01,2013-03-17 06:47:00,
2013-03-17 02:48:00,62.2,37.0,29.82,WSW,248,0.0,0.0,39,0.00,,---,0.00,VWS V14.01,2013-03-17 06:48:00,
2013-03-17 02:51:00,62.2,37.6,29.82,WSW,248,0.0,0.0,40,0.00,,---,0.00,VWS V14.01,2013-03-17 06:51:00,
2013-03-17 02:52:00,62.2,37.6,29.82,WSW,248,0.0,0.0,40,0.00,,---,0.00,VWS V14.01,2013-03-17 06:52:00,
2013-03-17 02:53:00,62.2,37.6,29.82,SW,225,0.0,0.0,40,0.00,,---,0.00,VWS V14.01,2013-03-17 06:53:00,
2013-03-17 02:54:00,62.2,37.6,29.82,SW,225,0.0,0.0,40,0.00,,---,0.00,VWS V14.01,2013-03-17 06:54:00,
2013-03-17 02:56:00,62.4,37.8,29.82,SW,225,0.0,0.0,40,0.00,,---,0.00,VWS V14.01,2013-03-17 06:56:00,
2013-03-17 02:58:00,62.2,37.6,29.82,SW,225,0.0,0.0,40,0.00,,---,0.00,VWS V14.01,2013-03-17 06:58:00,
2013-03-17 02:59:00,62.2,37.6,29.82,SW,225,0.0,0.0,40,0.00,,---,0.00,VWS V14.01,2013-03-17 06:59:00,
2013-03-17 03:02:00,62.2,37.6,29.82,SW,225,0.0,0.0,40,0.00,,---,0.00,VWS V14.01,2013-03-17 07:02:00,
2013-03-17 03:03:00,62.2,37.6,29.82,SW,225,0.0,0.0,40,0.00,,---,0.00,VWS V14.01,2013-03-17 07:03:00,
2013-03-17 03:04:00,62.2,37.6,29.82,SW,225,0.0,0.0,40,0.00,,---,0.00,VWS V14.01,2013-03-17 07:04:00,
2013-03-17 03:07:00,62.0,37.4,29.82,SSW,202,0.0,0.0,40,0.00,,---,0.00,VWS V14.01,2013-03-17 07:07:00,
2013-03-17 03:08:00,62.0,38.0,29.82,SSW,202,0.0,0.0,41,0.00,,---,0.00,VWS V14.01,2013-03-17 07:08:00,
2013-03-17 03:09:00,62.0,38.0,29.82,SSW,202,0.0,0.0,41,0.00,,---,0.00,VWS V14.01,2013-03-17 07:09:00,
2013-03-17 03:13:00,62.0,38.0,29.82,SSW,202,0.0,0.0,41,0.00,,---,0.00,VWS V14.01,2013-03-17 07:13:00,
2013-03-17 03:14:00,62.0,38.0,29.82,SSW,202,0.0,0.0,41,0.00,,---,0.00,VWS V14.01,2013-03-17 07:14:00,
2013-03-17 03:15:00,62.0,38.0,29.82,SSW,202,0.0,0.0,41,0.00,,---,0.00,VWS V14.01,2013-03-17 07:15:00,
2013-03-17 03:18:00,62.0,38.0,29.82,WSW,248,0.0,0.0,41,0.00,,---,0.00,VWS V14.01,2013-03-17 07:18:00,
2013-03-17 03:19:00,62.0,38.0,29.82,WSW,248,0.0,0.0,41,0.00,,---,0.00,VWS V14.01,2013-03-17 07:19:00,
2013-03-17 03:21:00,62.0,38.0,29.82,WSW,248,0.0,0.0,41,0.00,,---,0.00,VWS V14.01,2013-03-17 07:21:00,
2013-03-17 03:23:00,61.8,37.9,29.82,WSW,248,0.0,0.0,41,0.00,,---,0.00,VWS V14.01,2013-03-17 07:23:00,
2013-03-17 03:24:00,61.8,37.9,29.82,WSW,248,0.0,0.0,41,0.00,,---,0.00,VWS V14.01,2013-03-17 07:24:00,
2013-03-17 03:25:00,61.8,37.9,29.82,WSW,248,0.0,0.0,41,0.00,,---,0.00,VWS V14.01,2013-03-17 07:25:00,
2013-03-17 03:27:00,61.8,37.9,29.82,WSW,248,0.0,0.0,41,0.00,,---,0.00,VWS V14.01,2013-03-17 07:27:00,
2013-03-17 03:29:00,61.8,37.9,29.81,WSW,248,0.0,0.0,41,0.00,,---,0.00,VWS V14.01,2013-03-17 07:29:00,
2013-03-17 03:30:00,61.8,37.9,29.82,WSW,248,0.0,0.0,41,0.00,,---,0.00,VWS V14.01,2013-03-17 07:30:00,
2013-03-17 03:32:00,62.0,38.0,29.82,WSW,248,0.0,0.0,41,0.00,,---,0.00,VWS V14.01,2013-03-17 07:32:00,
2013-03-17 03:34:00,62.0,38.0,29.82,WSW,248,0.0,0.0,41,0.00,,---,0.00,VWS V14.01,2013-03-17 07:34:00,
2013-03-17 03:35:00,62.0,38.0,29.81,WSW,248,0.0,0.0,41,0.00,,---,0.00,VWS V14.01,2013-03-17 07:35:00,
2013-03-17 03:37:00,61.8,37.9,29.81,WSW,248,0.0,0.0,41,0.00,,---,0.00,VWS V14.01,2013-03-17 07:37:00,
2013-03-17 03:39:00,61.8,37.9,29.81,WSW,248,0.0,0.0,41,0.00,,---,0.00,VWS V14.01,2013-03-17 07:39:00,
2013-03-17 03:40:00,61.8,37.9,29.81,WSW,248,0.0,0.0,41,0.00,,---,0.00,VWS V14.01,2013-03-17 07:40:00,
2013-03-17 03:41:00,61.8,37.9,29.81,WSW,248,0.0,0.0,41,0.00,,---,0.00,VWS V14.01,2013-03-17 07:41:00,
2013-03-17 03:42:00,61.8,37.9,29.82,WSW,248,0.0,0.0,41,0.00,,---,0.00,VWS V14.01,2013-03-17 07:42:00,
2013-03-17 03:44:00,61.8,37.9,29.81,WSW,248,0.0,0.0,41,0.00,,---,0.00,VWS V14.01,2013-03-17 07:44:00,
2013-03-17 03:45:00,61.8,37.9,29.81,WSW,248,0.0,0.0,41,0.00,,---,0.00,VWS V14.01,2013-03-17 07:45:00,
2013-03-17 03:47:00,61.8,37.9,29.81,WSW,248,0.0,0.0,41,0.00,,---,0.00,VWS V14.01,2013-03-17 07:47:00,
2013-03-17 03:49:00,61.8,37.9,29.82,WSW,248,0.0,0.0,41,0.00,,---,0.00,VWS V14.01,2013-03-17 07:49:00,
2013-03-17 03:50:00,61.8,37.9,29.81,WSW,248,0.0,0.0,41,0.00,,---,0.00,VWS V14.01,2013-03-17 07:50:00,
2013-03-17 03:52:00,61.8,37.9,29.81,WSW,248,0.0,0.0,41,0.00,,---,0.00,VWS V14.01,2013-03-17 07:52:00,
2013-03-17 03:53:00,61.5,37.6,29.81,WSW,248,0.0,0.0,41,0.00,,---,0.00,VWS V14.01,2013-03-17 07:53:00,
2013-03-17 03:55:00,61.5,37.6,29.82,WSW,248,0.0,0.0,41,0.00,,---,0.00,VWS V14.01,2013-03-17 07:55:00,
2013-03-17 03:58:00,61.6,37.7,29.81,WSW,248,0.0,0.0,41,0.00,,---,0.00,VWS V14.01,2013-03-17 07:58:00,
2013-03-17 04:00:00,61.5,37.6,29.81,WSW,248,0.0,0.0,41,0.00,,---,0.00,VWS V14.01,2013-03-17 08:00:00,
2013-03-17 04:01:00,61.5,37.6,29.81,WSW,248,0.0,0.0,41,0.00,,---,0.00,VWS V14.01,2013-03-17 08:01:00,
2013-03-17 04:03:00,61.5,37.6,29.81,WSW,248,0.0,0.0,41,0.00,,---,0.00,VWS V14.01,2013-03-17 08:03:00,
2013-03-17 04:05:00,61.5,37.6,29.81,WSW,248,0.0,0.0,41,0.00,,---,0.00,VWS V14.01,2013-03-17 08:05:00,
2013-03-17 04:07:00,61.5,37.6,29.81,WSW,248,0.0,0.0,41,0.00,,---,0.00,VWS V14.01,2013-03-17 08:07:00,
2013-03-17 04:08:00,61.5,37.6,29.81,WSW,248,0.0,0.0,41,0.00,,---,0.00,VWS V14.01,2013-03-17 08:08:00,
2013-03-17 04:09:00,61.5,37.6,29.81,WSW,248,0.0,0.0,41,0.00,,---,0.00,VWS V14.01,2013-03-17 08:09:00,
2013-03-17 04:11:00,61.5,37.6,29.81,WSW,248,0.0,0.0,41,0.00,,---,0.00,VWS V14.01,2013-03-17 08:11:00,
2013-03-17 04:12:00,61.3,38.0,29.81,WSW,248,0.0,0.0,42,0.00,,---,0.00,VWS V14.01,2013-03-17 08:12:00,
2013-03-17 04:14:00,61.3,38.6,29.81,WSW,248,0.0,0.0,43,0.00,,---,0.00,VWS V14.01,2013-03-17 08:14:00,
2013-03-17 04:16:00,61.3,38.0,29.81,WSW,248,0.0,0.0,42,0.00,,---,0.00,VWS V14.01,2013-03-17 08:16:00,
2013-03-17 04:18:00,61.3,38.0,29.81,WSW,248,0.0,0.0,42,0.00,,---,0.00,VWS V14.01,2013-03-17 08:18:00,
2013-03-17 04:19:00,61.3,38.6,29.81,WSW,248,0.0,0.0,43,0.00,,---,0.00,VWS V14.01,2013-03-17 08:19:00,
2013-03-17 04:22:00,61.3,39.2,29.81,WSW,248,0.0,0.0,44,0.00,,---,0.00,VWS V14.01,2013-03-17 08:22:00,
2013-03-17 04:23:00,61.3,39.2,29.81,WSW,248,0.0,0.0,44,0.00,,---,0.00,VWS V14.01,2013-03-17 08:23:00,
2013-03-17 04:24:00,61.3,39.2,29.81,WSW,248,0.0,0.0,44,0.00,,---,0.00,VWS V14.01,2013-03-17 08:24:00,
2013-03-17 04:25:00,60.9,38.3,29.81,WSW,248,0.0,0.0,43,0.00,,---,0.00,VWS V14.01,2013-03-17 08:25:00,
2013-03-17 04:27:00,60.9,38.3,29.81,WSW,248,0.0,0.0,43,0.00,,---,0.00,VWS V14.01,2013-03-17 08:27:00,
2013-03-17 04:28:00,60.9,38.3,29.81,WSW,248,0.0,0.0,43,0.00,,---,0.00,VWS V14.01,2013-03-17 08:28:00,
2013-03-17 04:29:00,61.1,38.5,29.81,WSW,248,0.0,0.0,43,0.00,,---,0.00,VWS V14.01,2013-03-17 08:29:00,
2013-03-17 04:30:00,61.1,38.5,29.81,WSW,248,0.0,0.0,43,0.00,,---,0.00,VWS V14.01,2013-03-17 08:30:00,
2013-03-17 04:32:00,60.9,38.3,29.81,WSW,248,0.0,0.0,43,0.00,,---,0.00,VWS V14.01,2013-03-17 08:32:00,
2013-03-17 04:33:00,61.1,39.0,29.81,WSW,248,0.0,0.0,44,0.00,,---,0.00,VWS V14.01,2013-03-17 08:33:00,
2013-03-17 04:35:00,61.1,39.0,29.81,WSW,248,0.0,0.0,44,0.00,,---,0.00,VWS V14.01,2013-03-17 08:35:00,
2013-03-17 04:38:00,60.9,39.4,29.81,WSW,248,0.0,0.0,45,0.00,,---,0.00,VWS V14.01,2013-03-17 08:38:00,
2013-03-17 04:39:00,60.7,38.7,29.81,WSW,248,0.0,0.0,44,0.00,,---,0.00,VWS V14.01,2013-03-17 08:39:00,
2013-03-17 04:40:00,60.7,38.7,29.81,WSW,248,0.0,0.0,44,0.00,,---,0.00,VWS V14.01,2013-03-17 08:40:00,
2013-03-17 04:43:00,60.7,38.7,29.81,WSW,248,0.0,0.0,44,0.00,,---,0.00,VWS V14.01,2013-03-17 08:43:00,
2013-03-17 04:44:00,60.7,38.7,29.81,WSW,248,0.0,0.0,44,0.00,,---,0.00,VWS V14.01,2013-03-17 08:44:00,
2013-03-17 04:45:00,60.7,38.7,29.81,WSW,248,0.0,0.0,44,0.00,,---,0.00,VWS V14.01,2013-03-17 08:45:00,
2013-03-17 04:46:00,60.9,38.9,29.81,WSW,248,0.0,0.0,44,0.00,,---,0.00,VWS V14.01,2013-03-17 08:46:00,
2013-03-17 04:48:00,60.9,38.9,29.81,WSW,248,0.0,0.0,44,0.00,,---,0.00,VWS V14.01,2013-03-17 08:48:00,
2013-03-17 04:50:00,60.9,38.9,29.81,WSW,248,0.0,0.0,44,0.00,,---,0.00,VWS V14.01,2013-03-17 08:50:00,
2013-03-17 04:51:00,60.9,38.9,29.81,WSW,248,0.0,0.0,44,0.00,,---,0.00,VWS V14.01,2013-03-17 08:51:00,
2013-03-17 04:54:00,60.9,38.3,29.81,WSW,248,0.0,0.0,43,0.00,,---,0.00,VWS V14.01,2013-03-17 08:54:00,
2013-03-17 04:55:00,60.9,38.9,29.81,WSW,248,0.0,0.0,44,0.00,,---,0.00,VWS V14.01,2013-03-17 08:55:00,
2013-03-17 04:56:00,60.9,38.9,29.81,WSW,248,0.0,0.0,44,0.00,,---,0.00,VWS V14.01,2013-03-17 08:56:00,
2013-03-17 04:58:00,60.7,38.7,29.81,WSW,248,0.0,0.0,44,0.00,,---,0.00,VWS V14.01,2013-03-17 08:58:00,
2013-03-17 05:00:00,60.7,38.7,29.81,WSW,248,0.0,0.0,44,0.00,,---,0.00,VWS V14.01,2013-03-17 09:00:00,
2013-03-17 05:01:00,60.7,38.7,29.81,WSW,248,0.0,0.0,44,0.00,,---,0.00,VWS V14.01,2013-03-17 09:01:00,
2013-03-17 05:03:00,60.7,38.7,29.81,WSW,248,0.0,0.0,44,0.00,,---,0.00,VWS V14.01,2013-03-17 09:03:00,
2013-03-17 05:05:00,60.7,38.7,29.81,WSW,248,0.0,0.0,44,0.00,,---,0.00,VWS V14.01,2013-03-17 09:05:00,
2013-03-17 05:06:00,60.7,38.7,29.81,WSW,248,0.0,0.0,44,0.00,,---,0.00,VWS V14.01,2013-03-17 09:06:00,
2013-03-17 05:07:00,60.7,38.7,29.81,WSW,248,0.0,0.0,44,0.00,,---,0.00,VWS V14.01,2013-03-17 09:07:00,
2013-03-17 05:09:00,60.7,38.7,29.81,WSW,248,0.0,0.0,44,0.00,,---,0.00,VWS V14.01,2013-03-17 09:09:00,
2013-03-17 05:10:00,60.7,38.7,29.81,WSW,248,0.0,0.0,44,0.00,,---,0.00,VWS V14.01,2013-03-17 09:10:00,
2013-03-17 05:11:00,60.7,38.7,29.82,WSW,248,0.0,0.0,44,0.00,,---,0.00,VWS V14.01,2013-03-17 09:11:00,
2013-03-17 05:14:00,60.7,38.7,29.82,WSW,248,0.0,0.0,44,0.00,,---,0.00,VWS V14.01,2013-03-17 09:14:00,
2013-03-17 05:15:00,60.7,38.7,29.82,WSW,248,0.0,0.0,44,0.00,,---,0.00,VWS V14.01,2013-03-17 09:15:00,
2013-03-17 05:17:00,60.7,38.7,29.82,WSW,248,0.0,0.0,44,0.00,,---,0.00,VWS V14.01,2013-03-17 09:17:00,
2013-03-17 05:19:00,60.6,38.6,29.82,WSW,248,0.0,0.0,44,0.00,,---,0.00,VWS V14.01,2013-03-17 09:19:00,
2013-03-17 05:20:00,60.4,38.4,29.82,WSW,248,0.0,0.0,44,0.00,,---,0.00,VWS V14.01,2013-03-17 09:20:00,
2013-03-17 05:22:00,60.4,39.0,29.82,WSW,248,0.0,0.0,45,0.00,,---,0.00,VWS V14.01,2013-03-17 09:22:00,
2013-03-17 05:24:00,60.4,39.0,29.82,WSW,248,0.0,0.0,45,0.00,,---,0.00,VWS V14.01,2013-03-17 09:24:00,
2013-03-17 05:25:00,60.2,38.8,29.82,WSW,248,0.0,0.0,45,0.00,,---,0.00,VWS V14.01,2013-03-17 09:25:00,
2013-03-17 05:27:00,60.2,39.4,29.82,WSW,248,0.0,0.0,46,0.00,,---,0.00,VWS V14.01,2013-03-17 09:27:00,
2013-03-17 05:29:00,60.2,39.4,29.82,WSW,248,0.0,0.0,46,0.00,,---,0.00,VWS V14.01,2013-03-17 09:29:00,
2013-03-17 05:30:00,60.2,39.4,29.82,WSW,248,0.0,0.0,46,0.00,,---,0.00,VWS V14.01,2013-03-17 09:30:00,
2013-03-17 05:33:00,59.7,38.9,29.82,WSW,248,0.0,0.0,46,0.00,,---,0.00,VWS V14.01,2013-03-17 09:33:00,
2013-03-17 05:34:00,59.7,38.9,29.82,WSW,248,0.0,0.0,46,0.00,,---,0.00,VWS V14.01,2013-03-17 09:34:00,
2013-03-17 05:35:00,59.7,38.9,29.82,WSW,248,0.0,0.0,46,0.00,,---,0.00,VWS V14.01,2013-03-17 09:35:00,
2013-03-17 05:36:00,59.7,38.9,29.82,WSW,248,0.0,0.0,46,0.00,,---,0.00,VWS V14.01,2013-03-17 09:36:00,
2013-03-17 05:38:00,59.7,39.5,29.82,WSW,248,0.0,0.0,47,0.00,,---,0.00,VWS V14.01,2013-03-17 09:38:00,
2013-03-17 05:40:00,59.7,39.5,29.82,WSW,248,0.0,0.0,47,0.00,,---,0.00,VWS V14.01,2013-03-17 09:40:00,
2013-03-17 05:41:00,59.7,39.5,29.82,WSW,248,0.0,0.0,47,0.00,,---,0.00,VWS V14.01,2013-03-17 09:41:00,
2013-03-17 05:43:00,59.5,39.3,29.82,WSW,248,0.0,0.0,47,0.00,,---,0.00,VWS V14.01,2013-03-17 09:43:00,
2013-03-17 05:45:00,59.5,39.3,29.82,WSW,248,0.0,0.0,47,0.00,,---,0.00,VWS V14.01,2013-03-17 09:45:00,
2013-03-17 05:46:00,59.5,39.3,29.82,WSW,248,0.0,0.0,47,0.00,,---,0.00,VWS V14.01,2013-03-17 09:46:00,
2013-03-17 05:47:00,59.5,39.3,29.82,WSW,248,0.0,0.0,47,0.00,,---,0.00,VWS V14.01,2013-03-17 09:47:00,
2013-03-17 05:50:00,59.5,39.3,29.83,WSW,248,0.0,0.0,47,0.00,,---,0.00,VWS V14.01,2013-03-17 09:50:00,
2013-03-17 05:52:00,59.3,39.1,29.83,WSW,248,0.0,0.0,47,0.00,,---,0.00,VWS V14.01,2013-03-17 09:52:00,
2013-03-17 05:55:00,59.3,39.1,29.83,WSW,248,0.0,0.0,47,0.00,,---,0.00,VWS V14.01,2013-03-17 09:55:00,
2013-03-17 05:56:00,59.3,39.1,29.83,WSW,248,0.0,0.0,47,0.00,,---,0.00,VWS V14.01,2013-03-17 09:56:00,
2013-03-17 05:57:00,59.3,39.1,29.83,WSW,248,0.0,0.0,47,0.00,,---,0.00,VWS V14.01,2013-03-17 09:57:00,
2013-03-17 06:00:00,59.3,39.6,29.83,WSW,248,0.0,0.0,48,0.00,,---,0.00,VWS V14.01,2013-03-17 10:00:00,
2013-03-17 06:01:00,59.3,39.6,29.83,WSW,248,0.0,0.0,48,0.00,,---,0.00,VWS V14.01,2013-03-17 10:01:00,
2013-03-17 06:02:00,59.3,39.6,29.83,WSW,248,0.0,0.0,48,0.00,,---,0.00,VWS V14.01,2013-03-17 10:02:00,
2013-03-17 06:03:00,59.3,39.6,29.83,WSW,248,0.0,0.0,48,0.00,,---,0.00,VWS V14.01,2013-03-17 10:03:00,
2013-03-17 06:05:00,59.3,39.6,29.83,WSW,248,0.0,0.0,48,0.00,,---,0.00,VWS V14.01,2013-03-17 10:05:00,
2013-03-17 06:07:00,59.3,39.6,29.83,WSW,248,0.0,0.0,48,0.00,,---,0.00,VWS V14.01,2013-03-17 10:07:00,
2013-03-17 06:08:00,59.3,39.6,29.83,WSW,248,0.0,0.0,48,0.00,,---,0.00,VWS V14.01,2013-03-17 10:08:00,
2013-03-17 06:12:00,58.9,39.8,29.83,WSW,248,0.0,0.0,49,0.00,,---,0.00,VWS V14.01,2013-03-17 10:12:00,
2013-03-17 06:13:00,58.9,39.8,29.83,WSW,248,0.0,0.0,49,0.00,,---,0.00,VWS V14.01,2013-03-17 10:13:00,
2013-03-17 06:17:00,58.9,40.3,29.83,WSW,248,0.0,0.0,50,0.00,,---,0.00,VWS V14.01,2013-03-17 10:17:00,
2013-03-17 06:18:00,58.9,40.3,29.83,WSW,248,0.0,0.0,50,0.00,,---,0.00,VWS V14.01,2013-03-17 10:18:00,
2013-03-17 06:19:00,58.9,40.3,29.83,WSW,248,0.0,0.0,50,0.00,,---,0.00,VWS V14.01,2013-03-17 10:19:00,
2013-03-17 06:22:00,58.6,40.0,29.83,WSW,248,0.0,0.0,50,0.00,,---,0.00,VWS V14.01,2013-03-17 10:22:00,
2013-03-17 06:23:00,58.6,40.0,29.83,WSW,248,0.0,0.0,50,0.00,,---,0.00,VWS V14.01,2013-03-17 10:23:00,
2013-03-17 06:24:00,58.6,40.0,29.83,WSW,248,0.0,0.0,50,0.00,,---,0.00,VWS V14.01,2013-03-17 10:24:00,
2013-03-17 06:27:00,58.4,40.4,29.83,WSW,248,0.0,0.0,51,0.00,,---,0.00,VWS V14.01,2013-03-17 10:27:00,
2013-03-17 06:28:00,58.4,40.4,29.83,WSW,248,0.0,0.0,51,0.00,,---,0.00,VWS V14.01,2013-03-17 10:28:00,
2013-03-17 06:29:00,58.4,40.4,29.83,WSW,248,0.0,0.0,51,0.00,,---,0.00,VWS V14.01,2013-03-17 10:29:00,
2013-03-17 06:33:00,58.0,40.0,29.84,WSW,248,0.0,0.0,51,0.00,,---,0.00,VWS V14.01,2013-03-17 10:33:00,
2013-03-17 06:34:00,58.0,40.0,29.84,WSW,248,0.0,0.0,51,0.00,,---,0.00,VWS V14.01,2013-03-17 10:34:00,
2013-03-17 06:38:00,57.9,39.9,29.83,WSW,248,0.0,0.0,51,0.00,,---,0.00,VWS V14.01,2013-03-17 10:38:00,
2013-03-17 06:39:00,57.9,39.9,29.83,WSW,248,0.0,0.0,51,0.00,,---,0.00,VWS V14.01,2013-03-17 10:39:00,
2013-03-17 06:43:00,57.7,40.7,29.84,WSW,248,0.0,0.0,53,0.00,,---,0.00,VWS V14.01,2013-03-17 10:43:00,
2013-03-17 06:44:00,57.7,40.7,29.84,WSW,248,0.0,0.0,53,0.00,,---,0.00,VWS V14.01,2013-03-17 10:44:00,
2013-03-17 06:49:00,57.5,40.5,29.83,WSW,248,0.0,0.0,53,0.00,,---,0.00,VWS V14.01,2013-03-17 10:49:00,
2013-03-17 06:50:00,57.5,40.5,29.84,WSW,248,0.0,0.0,53,0.00,,---,0.00,VWS V14.01,2013-03-17 10:50:00,
2013-03-17 06:54:00,57.5,41.0,29.84,WSW,248,0.0,0.0,54,0.00,,---,0.00,VWS V14.01,2013-03-17 10:54:00,
2013-03-17 06:55:00,57.3,40.8,29.84,WSW,248,0.0,0.0,54,0.00,,---,0.00,VWS V14.01,2013-03-17 10:55:00,
2013-03-17 06:59:00,57.3,40.8,29.84,WSW,248,0.0,0.0,54,0.00,,---,0.00,VWS V14.01,2013-03-17 10:59:00,
2013-03-17 07:00:00,57.3,40.8,29.84,WSW,248,0.0,0.0,54,0.00,,---,0.00,VWS V14.01,2013-03-17 11:00:00,
2013-03-17 07:02:00,57.3,40.8,29.84,WSW,248,0.0,0.0,54,0.00,,---,0.00,VWS V14.01,2013-03-17 11:02:00,
2013-03-17 07:04:00,57.3,40.8,29.84,WSW,248,0.0,0.0,54,0.00,,---,0.00,VWS V14.01,2013-03-17 11:04:00,
2013-03-17 07:05:00,57.3,40.8,29.84,WSW,248,0.0,0.0,54,0.00,,---,0.00,VWS V14.01,2013-03-17 11:05:00,
2013-03-17 07:07:00,57.3,40.8,29.84,WSW,248,0.0,0.0,54,0.00,,---,0.00,VWS V14.01,2013-03-17 11:07:00,
2013-03-17 07:09:00,57.3,40.8,29.84,WSW,248,0.0,0.0,54,0.00,,---,0.00,VWS V14.01,2013-03-17 11:09:00,
2013-03-17 07:10:00,57.3,40.8,29.84,WSW,248,0.0,0.0,54,0.00,,---,0.00,VWS V14.01,2013-03-17 11:10:00,
2013-03-17 07:12:00,57.0,41.0,29.84,WSW,248,0.0,0.0,55,0.00,,---,0.00,VWS V14.01,2013-03-17 11:12:00,
2013-03-17 07:14:00,57.0,41.0,29.84,WSW,248,0.0,0.0,55,0.00,,---,0.00,VWS V14.01,2013-03-17 11:14:00,
2013-03-17 07:15:00,57.0,41.0,29.85,WSW,248,0.0,0.0,55,0.00,,---,0.00,VWS V14.01,2013-03-17 11:15:00,
2013-03-17 07:18:00,56.8,40.8,29.85,WSW,248,0.0,0.0,55,0.00,,---,0.00,VWS V14.01,2013-03-17 11:18:00,
2013-03-17 07:20:00,57.0,41.0,29.84,WSW,248,0.0,0.0,55,0.00,,---,0.00,VWS V14.01,2013-03-17 11:20:00,
2013-03-17 07:21:00,57.0,41.0,29.84,WSW,248,0.0,0.0,55,0.00,,---,0.00,VWS V14.01,2013-03-17 11:21:00,
2013-03-17 07:23:00,57.0,41.0,29.84,WSW,248,0.0,0.0,55,0.00,,---,0.00,VWS V14.01,2013-03-17 11:23:00,
2013-03-17 07:25:00,56.8,41.3,29.84,WSW,248,0.0,0.0,56,0.00,,---,0.00,VWS V14.01,2013-03-17 11:25:00,
2013-03-17 07:26:00,56.8,41.3,29.84,WSW,248,0.0,0.0,56,0.00,,---,0.00,VWS V14.01,2013-03-17 11:26:00,
2013-03-17 07:28:00,56.6,41.1,29.85,WSW,248,0.0,0.0,56,0.00,,---,0.00,VWS V14.01,2013-03-17 11:28:00,
2013-03-17 07:30:00,56.8,41.3,29.85,WSW,248,0.0,0.0,56,0.00,,---,0.00,VWS V14.01,2013-03-17 11:30:00,
2013-03-17 07:31:00,56.8,41.3,29.85,WSW,248,0.0,0.0,56,0.00,,---,0.00,VWS V14.01,2013-03-17 11:31:00,
2013-03-17 07:33:00,56.8,41.3,29.85,WSW,248,0.0,0.0,56,0.00,,---,0.00,VWS V14.01,2013-03-17 11:33:00,
2013-03-17 07:35:00,56.6,41.1,29.85,WSW,248,0.0,0.0,56,0.00,,---,0.00,VWS V14.01,2013-03-17 11:35:00,
2013-03-17 07:36:00,56.6,41.1,29.85,WSW,248,0.0,0.0,56,0.00,,---,0.00,VWS V14.01,2013-03-17 11:36:00,
2013-03-17 07:38:00,56.6,41.1,29.85,WSW,248,0.0,0.0,56,0.00,,---,0.00,VWS V14.01,2013-03-17 11:38:00,
2013-03-17 07:40:00,56.4,40.9,29.85,WSW,248,0.0,0.0,56,0.00,,---,0.00,VWS V14.01,2013-03-17 11:40:00,
2013-03-17 07:42:00,56.4,40.9,29.85,WSW,248,0.0,0.0,56,0.00,,---,0.00,VWS V14.01,2013-03-17 11:42:00,
2013-03-17 07:43:00,56.4,40.9,29.85,WSW,248,0.0,0.0,56,0.00,,---,0.00,VWS V14.01,2013-03-17 11:43:00,
2013-03-17 07:45:00,56.4,40.9,29.84,WSW,248,0.0,0.0,56,0.00,,---,0.00,VWS V14.01,2013-03-17 11:45:00,
2013-03-17 07:46:00,56.4,40.9,29.84,WSW,248,0.0,0.0,56,0.00,,---,0.00,VWS V14.01,2013-03-17 11:46:00,
2013-03-17 07:47:00,56.4,40.9,29.84,ESE,112,0.0,0.0,56,0.00,,---,0.00,VWS V14.01,2013-03-17 11:47:00,
2013-03-17 07:49:00,56.4,40.9,29.85,ESE,112,0.0,0.0,56,0.00,,---,0.00,VWS V14.01,2013-03-17 11:49:00,
2013-03-17 07:50:00,56.4,41.4,29.85,ESE,112,0.0,0.0,57,0.00,,---,0.00,VWS V14.01,2013-03-17 11:50:00,
2013-03-17 07:51:00,56.1,41.1,29.85,NE,45,0.0,0.0,57,0.00,,---,0.00,VWS V14.01,2013-03-17 11:51:00,
2013-03-17 07:52:00,56.1,41.1,29.84,NE,45,0.0,0.0,57,0.00,,---,0.00,VWS V14.01,2013-03-17 11:52:00,
2013-03-17 07:54:00,56.1,41.1,29.85,NE,45,0.0,0.0,57,0.00,,---,0.00,VWS V14.01,2013-03-17 11:54:00,
2013-03-17 07:56:00,56.1,41.1,29.84,NE,45,0.0,0.0,57,0.00,,---,0.00,VWS V14.01,2013-03-17 11:56:00,
2013-03-17 07:57:00,56.1,41.1,29.85,NE,45,0.0,0.0,57,0.00,,---,0.00,VWS V14.01,2013-03-17 11:57:00,
2013-03-17 07:59:00,56.1,41.1,29.85,NE,45,0.0,0.0,57,0.00,,---,0.00,VWS V14.01,2013-03-17 11:59:00,
2013-03-17 08:01:00,56.1,41.1,29.85,NE,45,0.0,0.0,57,0.00,,---,0.00,VWS V14.01,2013-03-17 12:01:00,
2013-03-17 08:02:00,55.9,40.9,29.85,NE,45,0.0,0.0,57,0.00,,---,0.00,VWS V14.01,2013-03-17 12:02:00,
2013-03-17 08:04:00,56.1,41.5,29.85,NE,45,0.0,0.0,58,0.00,,---,0.00,VWS V14.01,2013-03-17 12:04:00,
2013-03-17 08:06:00,56.1,41.1,29.85,NE,45,0.0,0.0,57,0.00,,---,0.00,VWS V14.01,2013-03-17 12:06:00,
2013-03-17 08:08:00,56.1,41.1,29.85,NE,45,0.0,0.0,57,0.00,,---,0.00,VWS V14.01,2013-03-17 12:08:00,
2013-03-17 08:10:00,56.1,41.1,29.85,NE,45,0.0,0.0,57,0.00,,---,0.00,VWS V14.01,2013-03-17 12:10:00,
2013-03-17 08:12:00,56.1,41.1,29.85,NE,45,0.0,0.0,57,0.00,,---,0.00,VWS V14.01,2013-03-17 12:12:00,
2013-03-17 08:13:00,56.1,41.1,29.85,NE,45,0.0,0.0,57,0.00,,---,0.00,VWS V14.01,2013-03-17 12:13:00,
2013-03-17 08:15:00,56.1,41.1,29.85,NE,45,0.0,0.0,57,0.00,,---,0.00,VWS V14.01,2013-03-17 12:15:00,
2013-03-17 08:17:00,56.1,41.1,29.85,NE,45,0.0,0.0,57,0.00,,---,0.00,VWS V14.01,2013-03-17 12:17:00,
2013-03-17 08:18:00,56.1,41.1,29.85,NE,45,0.0,0.0,57,0.00,,---,0.00,VWS V14.01,2013-03-17 12:18:00,
2013-03-17 08:20:00,56.1,41.1,29.85,NE,45,0.0,0.0,57,0.00,,---,0.00,VWS V14.01,2013-03-17 12:20:00,
2013-03-17 08:22:00,56.1,41.1,29.85,NE,45,0.0,0.0,57,0.00,,---,0.00,VWS V14.01,2013-03-17 12:22:00,
2013-03-17 08:23:00,56.1,41.1,29.85,NE,45,0.0,0.0,57,0.00,,---,0.00,VWS V14.01,2013-03-17 12:23:00,
2013-03-17 08:25:00,56.1,41.1,29.85,NE,45,0.0,0.0,57,0.00,,---,0.00,VWS V14.01,2013-03-17 12:25:00,
2013-03-17 08:27:00,56.4,41.4,29.85,NE,45,0.0,0.0,57,0.00,,---,0.00,VWS V14.01,2013-03-17 12:27:00,
2013-03-17 08:28:00,56.4,40.9,29.85,NE,45,0.0,0.0,56,0.00,,---,0.00,VWS V14.01,2013-03-17 12:28:00,
2013-03-17 08:30:00,56.2,40.7,29.85,SSE,158,0.0,0.0,56,0.00,,---,0.00,VWS V14.01,2013-03-17 12:30:00,
2013-03-17 08:33:00,56.4,40.9,29.86,WSW,248,0.0,0.0,56,0.00,,---,0.00,VWS V14.01,2013-03-17 12:33:00,
2013-03-17 08:34:00,56.4,40.9,29.86,WSW,248,0.0,0.0,56,0.00,,---,0.00,VWS V14.01,2013-03-17 12:34:00,
2013-03-17 08:35:00,56.4,40.5,29.86,SW,225,0.0,0.0,55,0.00,,---,0.00,VWS V14.01,2013-03-17 12:35:00,
2013-03-17 08:38:00,56.6,40.6,29.86,SW,225,0.0,0.0,55,0.00,,---,0.00,VWS V14.01,2013-03-17 12:38:00,
2013-03-17 08:39:00,56.6,40.6,29.86,SW,225,0.0,0.0,55,0.00,,---,0.00,VWS V14.01,2013-03-17 12:39:00,
2013-03-17 08:40:00,56.6,40.2,29.86,SW,225,0.0,0.0,54,0.00,,---,0.00,VWS V14.01,2013-03-17 12:40:00,
2013-03-17 08:44:00,56.6,39.7,29.86,SW,225,0.0,0.0,53,0.00,,---,0.00,VWS V14.01,2013-03-17 12:44:00,
2013-03-17 08:45:00,56.6,39.7,29.86,West,270,0.0,0.0,53,0.00,,---,0.00,VWS V14.01,2013-03-17 12:45:00,
2013-03-17 08:49:00,56.8,39.9,29.86,West,270,0.0,0.0,53,0.00,,---,0.00,VWS V14.01,2013-03-17 12:49:00,
2013-03-17 08:50:00,56.8,39.4,29.86,West,270,0.0,0.0,52,0.00,,---,0.00,VWS V14.01,2013-03-17 12:50:00,
2013-03-17 08:54:00,57.0,39.6,29.86,West,270,0.0,0.0,52,0.00,,---,0.00,VWS V14.01,2013-03-17 12:54:00,
2013-03-17 08:55:00,57.0,39.6,29.86,SW,225,0.0,0.0,52,0.00,,---,0.00,VWS V14.01,2013-03-17 12:55:00,
2013-03-17 08:56:00,57.0,39.6,29.86,SW,225,0.0,0.0,52,0.00,,---,0.00,VWS V14.01,2013-03-17 12:56:00,
2013-03-17 08:59:00,57.3,39.8,29.87,SW,225,0.0,0.0,52,0.00,,---,0.00,VWS V14.01,2013-03-17 12:59:00,
2013-03-17 09:00:00,57.3,39.8,29.87,SW,225,0.0,0.0,52,0.00,,---,0.00,VWS V14.01,2013-03-17 13:00:00,
2013-03-17 09:01:00,57.3,39.8,29.87,SW,225,0.0,0.0,52,0.00,,---,0.00,VWS V14.01,2013-03-17 13:01:00,
2013-03-17 09:05:00,57.5,40.0,29.88,SW,225,0.0,0.0,52,0.00,,---,0.00,VWS V14.01,2013-03-17 13:05:00,
2013-03-17 09:06:00,57.5,40.0,29.87,SW,225,0.0,0.0,52,0.00,,---,0.00,VWS V14.01,2013-03-17 13:06:00,
2013-03-17 09:07:00,57.7,40.2,29.87,SW,225,0.0,0.0,52,0.00,,---,0.00,VWS V14.01,2013-03-17 13:07:00,
2013-03-17 09:10:00,57.7,40.2,29.87,WSW,248,0.0,0.0,52,0.00,,---,0.00,VWS V14.01,2013-03-17 13:10:00,
2013-03-17 09:11:00,57.7,40.2,29.87,WSW,248,0.0,0.0,52,0.00,,---,0.00,VWS V14.01,2013-03-17 13:11:00,
2013-03-17 09:14:00,57.7,40.2,29.87,WSW,248,0.0,0.0,52,0.00,,---,0.00,VWS V14.01,2013-03-17 13:14:00,
2013-03-17 09:15:00,57.7,40.2,29.87,WSW,248,0.0,0.0,52,0.00,,---,0.00,VWS V14.01,2013-03-17 13:15:00,
2013-03-17 09:16:00,57.7,40.2,29.87,WSW,248,0.0,0.0,52,0.00,,---,0.00,VWS V14.01,2013-03-17 13:16:00,
2013-03-17 09:19:00,57.9,40.4,29.88,WSW,248,0.0,0.0,52,0.00,,---,0.00,VWS V14.01,2013-03-17 13:19:00,
2013-03-17 09:21:00,57.9,40.4,29.88,WSW,248,0.0,0.0,52,0.00,,---,0.00,VWS V14.01,2013-03-17 13:21:00,
2013-03-17 09:22:00,57.9,40.4,29.88,WSW,248,0.0,0.0,52,0.00,,---,0.00,VWS V14.01,2013-03-17 13:22:00,
2013-03-17 09:24:00,57.9,39.9,29.88,WSW,248,0.0,0.0,51,0.00,,---,0.00,VWS V14.01,2013-03-17 13:24:00,
2013-03-17 09:27:00,57.9,39.9,29.88,WSW,248,0.0,0.0,51,0.00,,---,0.00,VWS V14.01,2013-03-17 13:27:00,
2013-03-17 09:30:00,58.2,40.2,29.88,WSW,248,0.0,0.0,51,0.00,,---,0.00,VWS V14.01,2013-03-17 13:30:00,
2013-03-17 09:32:00,58.2,40.2,29.88,WSW,248,0.0,0.0,51,0.00,,---,0.00,VWS V14.01,2013-03-17 13:32:00,
2013-03-17 09:33:00,58.4,40.4,29.88,WSW,248,0.0,0.0,51,0.00,,---,0.00,VWS V14.01,2013-03-17 13:33:00,
2013-03-17 09:35:00,58.4,39.8,29.88,WSW,248,0.0,0.0,50,0.00,,---,0.00,VWS V14.01,2013-03-17 13:35:00,
2013-03-17 09:37:00,58.6,40.0,29.88,WSW,248,0.0,0.0,50,0.00,,---,0.00,VWS V14.01,2013-03-17 13:37:00,
2013-03-17 09:38:00,58.6,40.0,29.88,WSW,248,0.0,0.0,50,0.00,,---,0.00,VWS V14.01,2013-03-17 13:38:00,
2013-03-17 09:40:00,58.9,40.3,29.88,WSW,248,0.0,0.0,50,0.00,,---,0.00,VWS V14.01,2013-03-17 13:40:00,
2013-03-17 09:42:00,59.1,40.5,29.89,West,270,0.0,0.0,50,0.00,,---,0.00,VWS V14.01,2013-03-17 13:42:00,
2013-03-17 09:43:00,59.1,40.5,29.89,West,270,0.0,0.0,50,0.00,,---,0.00,VWS V14.01,2013-03-17 13:43:00,
2013-03-17 09:44:00,59.1,40.5,29.89,West,270,0.0,0.0,50,0.00,,---,0.00,VWS V14.01,2013-03-17 13:44:00,
2013-03-17 09:45:00,59.3,40.2,29.89,SW,225,0.0,0.0,49,0.00,,---,0.00,VWS V14.01,2013-03-17 13:45:00,
2013-03-17 09:48:00,59.3,39.6,29.88,West,270,0.0,0.0,48,0.00,,---,0.00,VWS V14.01,2013-03-17 13:48:00,
2013-03-17 09:49:00,59.3,39.1,29.88,WNW,292,0.0,0.0,47,0.00,,---,0.00,VWS V14.01,2013-03-17 13:49:00,
2013-03-17 09:50:00,59.3,39.1,29.88,WNW,292,0.0,0.0,47,0.00,,---,0.00,VWS V14.01,2013-03-17 13:50:00,
2013-03-17 09:53:00,59.5,39.3,29.88,WSW,248,0.0,0.0,47,0.00,,---,0.00,VWS V14.01,2013-03-17 13:53:00,
2013-03-17 09:54:00,59.5,39.3,29.88,WSW,248,0.0,0.0,47,0.00,,---,0.00,VWS V14.01,2013-03-17 13:54:00,
2013-03-17 09:56:00,59.5,39.3,29.89,SW,225,0.0,0.0,47,0.00,,---,0.00,VWS V14.01,2013-03-17 13:56:00,
2013-03-17 09:58:00,59.7,38.9,29.89,SW,225,0.0,0.0,46,0.00,,---,0.00,VWS V14.01,2013-03-17 13:58:00,
2013-03-17 09:59:00,59.7,38.9,29.89,SW,225,0.0,0.0,46,0.00,,---,0.00,VWS V14.01,2013-03-17 13:59:00,
2013-03-17 10:00:00,59.7,38.9,29.89,SW,225,0.0,0.0,46,0.00,,---,0.00,VWS V14.01,2013-03-17 14:00:00,
2013-03-17 10:02:00,59.8,39.0,29.89,SSW,202,0.0,0.0,46,0.00,,---,0.00,VWS V14.01,2013-03-17 14:02:00,
2013-03-17 10:03:00,59.8,39.0,29.89,SSW,202,0.0,0.0,46,0.00,,---,0.00,VWS V14.01,2013-03-17 14:03:00,
2013-03-17 10:04:00,59.8,39.0,29.89,SSW,202,0.0,0.0,46,0.00,,---,0.00,VWS V14.01,2013-03-17 14:04:00,
2013-03-17 10:05:00,60.0,39.7,29.89,West,270,0.0,0.0,47,0.00,,---,0.00,VWS V14.01,2013-03-17 14:05:00,
2013-03-17 10:07:00,60.0,39.7,29.89,West,270,0.0,0.0,47,0.00,,---,0.00,VWS V14.01,2013-03-17 14:07:00,
2013-03-17 10:08:00,60.0,39.7,29.88,West,270,0.0,0.0,47,0.00,,---,0.00,VWS V14.01,2013-03-17 14:08:00,
2013-03-17 10:09:00,60.0,39.7,29.88,West,270,0.0,0.0,47,0.00,,---,0.00,VWS V14.01,2013-03-17 14:09:00,
2013-03-17 10:12:00,60.0,39.7,29.88,West,270,0.0,0.0,47,0.00,,---,0.00,VWS V14.01,2013-03-17 14:12:00,
2013-03-17 10:13:00,60.0,39.7,29.88,West,270,0.0,0.0,47,0.00,,---,0.00,VWS V14.01,2013-03-17 14:13:00,
2013-03-17 10:14:00,60.2,39.9,29.88,West,270,0.0,0.0,47,0.00,,---,0.00,VWS V14.01,2013-03-17 14:14:00,
2013-03-17 10:17:00,60.2,39.9,29.89,West,270,0.0,0.0,47,0.00,,---,0.00,VWS V14.01,2013-03-17 14:17:00,
2013-03-17 10:18:00,60.2,39.9,29.89,West,270,0.0,0.0,47,0.00,,---,0.00,VWS V14.01,2013-03-17 14:18:00,
2013-03-17 10:19:00,60.2,39.9,29.88,WNW,292,0.0,0.0,47,0.00,,---,0.00,VWS V14.01,2013-03-17 14:19:00,
2013-03-17 10:23:00,60.2,39.9,29.89,WNW,292,0.0,0.0,47,0.00,,---,0.00,VWS V14.01,2013-03-17 14:23:00,
2013-03-17 10:24:00,60.6,40.3,29.89,West,270,0.0,0.0,47,0.00,,---,0.00,VWS V14.01,2013-03-17 14:24:00,
2013-03-17 10:25:00,60.2,39.9,29.88,West,270,0.0,0.0,47,0.00,,---,0.00,VWS V14.01,2013-03-17 14:25:00,
2013-03-17 10:28:00,60.4,40.1,29.88,West,270,0.0,0.0,47,0.00,,---,0.00,VWS V14.01,2013-03-17 14:28:00,
2013-03-17 10:29:00,60.4,40.1,29.88,West,270,0.0,0.0,47,0.00,,---,0.00,VWS V14.01,2013-03-17 14:29:00,
2013-03-17 10:30:00,60.6,40.3,29.88,West,270,0.0,0.0,47,0.00,,---,0.00,VWS V14.01,2013-03-17 14:30:00,
2013-03-17 10:33:00,60.6,40.3,29.88,West,270,0.0,0.0,47,0.00,,---,0.00,VWS V14.01,2013-03-17 14:33:00,
2013-03-17 10:34:00,60.6,40.3,29.88,West,270,0.0,0.0,47,0.00,,---,0.00,VWS V14.01,2013-03-17 14:34:00,
2013-03-17 10:35:00,60.6,40.3,29.88,West,270,0.0,0.0,47,0.00,,---,0.00,VWS V14.01,2013-03-17 14:35:00,
2013-03-17 10:36:00,60.4,40.1,29.88,West,270,0.0,0.0,47,0.00,,---,0.00,VWS V14.01,2013-03-17 14:36:00,
2013-03-17 10:38:00,60.6,40.3,29.88,West,270,0.0,0.0,47,0.00,,---,0.00,VWS V14.01,2013-03-17 14:38:00,
2013-03-17 10:39:00,60.6,40.3,29.88,West,270,0.0,0.0,47,0.00,,---,0.00,VWS V14.01,2013-03-17 14:39:00,
2013-03-17 10:40:00,60.7,40.4,29.88,West,270,0.0,0.0,47,0.00,,---,0.00,VWS V14.01,2013-03-17 14:40:00,
2013-03-17 10:42:00,60.7,40.4,29.88,West,270,0.0,0.0,47,0.00,,---,0.00,VWS V14.01,2013-03-17 14:42:00,
2013-03-17 10:44:00,60.9,40.5,29.88,WNW,292,1.3,1.3,47,0.00,,---,0.00,VWS V14.01,2013-03-17 14:44:00,
2013-03-17 10:45:00,60.9,40.5,29.88,West,270,0.0,0.0,47,0.00,,---,0.00,VWS V14.01,2013-03-17 14:45:00,
2013-03-17 10:47:00,60.9,40.5,29.88,West,270,0.0,0.0,47,0.00,,---,0.00,VWS V14.01,2013-03-17 14:47:00,
2013-03-17 10:49:00,61.1,40.7,29.88,West,270,0.0,0.0,47,0.00,,---,0.00,VWS V14.01,2013-03-17 14:49:00,
2013-03-17 10:50:00,61.3,40.4,29.88,West,270,0.0,0.0,46,0.00,,---,0.00,VWS V14.01,2013-03-17 14:50:00,
2013-03-17 10:52:00,61.3,40.4,29.88,West,270,0.0,0.0,46,0.00,,---,0.00,VWS V14.01,2013-03-17 14:52:00,
2013-03-17 10:54:00,61.3,40.4,29.88,West,270,0.0,0.0,46,0.00,,---,0.00,VWS V14.01,2013-03-17 14:54:00,
2013-03-17 10:55:00,61.5,40.5,29.88,South,180,2.9,2.9,46,0.00,,---,0.00,VWS V14.01,2013-03-17 14:55:00,
2013-03-17 10:57:00,61.5,40.5,29.88,South,180,2.9,2.9,46,0.00,,---,0.00,VWS V14.01,2013-03-17 14:57:00,
2013-03-17 11:00:00,62.0,40.4,29.88,WSW,248,0.0,2.9,45,0.00,,---,0.00,VWS V14.01,2013-03-17 15:00:00,
2013-03-17 11:02:00,62.2,40.6,29.88,WSW,248,0.0,0.0,45,0.00,,---,0.00,VWS V14.01,2013-03-17 15:02:00,
2013-03-17 11:05:00,62.4,40.2,29.88,WSW,248,0.0,0.0,44,0.00,,---,0.00,VWS V14.01,2013-03-17 15:05:00,
2013-03-17 11:07:00,62.5,40.3,29.88,SSW,202,0.0,0.0,44,0.00,,---,0.00,VWS V14.01,2013-03-17 15:07:00,
2013-03-17 11:08:00,62.5,40.3,29.88,SSW,202,0.0,0.0,44,0.00,,---,0.00,VWS V14.01,2013-03-17 15:08:00,
2013-03-17 11:10:00,62.9,40.7,29.88,West,270,0.0,0.0,44,0.00,,---,0.00,VWS V14.01,2013-03-17 15:10:00,
2013-03-17 11:11:00,62.9,40.7,29.88,West,270,0.0,0.0,44,0.00,,---,0.00,VWS V14.01,2013-03-17 15:11:00,
2013-03-17 11:13:00,62.9,40.7,29.88,SW,225,0.0,0.0,44,0.00,,---,0.00,VWS V14.01,2013-03-17 15:13:00,
2013-03-17 11:16:00,63.1,40.9,29.88,West,270,0.0,0.0,44,0.00,,---,0.00,VWS V14.01,2013-03-17 15:16:00,
2013-03-17 11:18:00,63.1,40.3,29.88,WNW,292,0.0,0.0,43,0.00,,---,0.00,VWS V14.01,2013-03-17 15:18:00,
2013-03-17 11:21:00,63.1,39.7,29.87,SW,225,0.0,0.0,42,0.00,,---,0.00,VWS V14.01,2013-03-17 15:21:00,
2013-03-17 11:23:00,63.3,40.5,29.87,SSW,202,0.0,0.0,43,0.00,,---,0.00,VWS V14.01,2013-03-17 15:23:00,
2013-03-17 11:27:00,63.4,39.9,29.87,SW,225,6.9,6.9,42,0.00,,---,0.00,VWS V14.01,2013-03-17 15:27:00,
2013-03-17 11:28:00,63.3,39.2,29.87,South,180,0.0,0.0,41,0.00,,---,0.00,VWS V14.01,2013-03-17 15:28:00,
2013-03-17 11:29:00,63.3,39.2,29.87,South,180,0.0,0.0,41,0.00,,---,0.00,VWS V14.01,2013-03-17 15:29:00,
2013-03-17 11:32:00,63.3,39.2,29.88,West,270,0.0,0.0,41,0.00,,---,0.00,VWS V14.01,2013-03-17 15:32:00,
2013-03-17 11:33:00,63.8,40.3,29.88,SW,225,0.0,0.0,42,0.00,,---,0.00,VWS V14.01,2013-03-17 15:33:00,
2013-03-17 11:34:00,63.8,40.3,29.88,SW,225,0.0,0.0,42,0.00,,---,0.00,VWS V14.01,2013-03-17 15:34:00,
2013-03-17 11:37:00,63.6,39.5,29.88,WSW,248,6.0,6.0,41,0.00,,---,0.00,VWS V14.01,2013-03-17 15:37:00,
2013-03-17 11:38:00,63.6,39.5,29.88,WSW,248,6.0,6.0,41,0.00,,---,0.00,VWS V14.01,2013-03-17 15:38:00,
2013-03-17 11:39:00,63.6,39.5,29.88,WSW,248,6.0,6.0,41,0.00,,---,0.00,VWS V14.01,2013-03-17 15:39:00,
2013-03-17 11:43:00,63.6,39.5,29.87,WSW,248,0.0,0.0,41,0.00,,---,0.00,VWS V14.01,2013-03-17 15:43:00,
2013-03-17 11:44:00,63.6,39.5,29.87,WSW,248,0.0,0.0,41,0.00,,---,0.00,VWS V14.01,2013-03-17 15:44:00,
2013-03-17 11:48:00,63.6,39.5,29.87,WNW,292,0.0,0.0,41,0.00,,---,0.00,VWS V14.01,2013-03-17 15:48:00,
2013-03-17 11:49:00,63.8,39.7,29.87,NW,315,0.0,0.0,41,0.00,,---,0.00,VWS V14.01,2013-03-17 15:49:00,
2013-03-17 11:50:00,63.8,39.7,29.87,NW,315,0.0,0.0,41,0.00,,---,0.00,VWS V14.01,2013-03-17 15:50:00,
2013-03-17 11:53:00,64.3,40.1,29.87,West,270,0.0,0.0,41,0.00,,---,0.00,VWS V14.01,2013-03-17 15:53:00,
2013-03-17 11:54:00,64.3,40.1,29.87,SW,225,0.0,0.0,41,0.00,,---,0.00,VWS V14.01,2013-03-17 15:54:00,
2013-03-17 11:55:00,64.3,40.1,29.87,SW,225,0.0,0.0,41,0.00,,---,0.00,VWS V14.01,2013-03-17 15:55:00,
2013-03-17 11:58:00,64.5,39.7,29.87,WSW,248,0.0,0.0,40,0.00,,---,0.00,VWS V14.01,2013-03-17 15:58:00,
2013-03-17 11:59:00,64.9,40.7,29.87,WSW,248,1.7,1.7,41,0.00,,---,0.00,VWS V14.01,2013-03-17 15:59:00,
2013-03-17 12:00:00,64.9,40.7,29.87,WSW,248,1.7,1.7,41,0.00,,---,0.00,VWS V14.01,2013-03-17 16:00:00,
2013-03-17 12:03:00,64.9,40.7,29.87,NW,315,0.0,0.0,41,0.00,,---,0.00,VWS V14.01,2013-03-17 16:03:00,
2013-03-17 12:05:00,65.1,40.8,29.86,WSW,248,0.0,3.5,41,0.00,,---,0.00,VWS V14.01,2013-03-17 16:05:00,
2013-03-17 12:06:00,65.1,40.8,29.86,WSW,248,0.0,3.5,41,0.00,,---,0.00,VWS V14.01,2013-03-17 16:06:00,
2013-03-17 12:08:00,64.9,39.4,29.86,West,270,0.0,0.0,39,0.00,,---,0.00,VWS V14.01,2013-03-17 16:08:00,
2013-03-17 12:11:00,64.9,40.0,29.87,SW,225,0.0,0.0,40,0.00,,---,0.00,VWS V14.01,2013-03-17 16:11:00,
2013-03-17 12:12:00,65.1,40.2,29.86,SW,225,0.0,0.0,40,0.00,,---,0.00,VWS V14.01,2013-03-17 16:12:00,
2013-03-17 12:13:00,65.1,40.2,29.86,SW,225,0.0,0.0,40,0.00,,---,0.00,VWS V14.01,2013-03-17 16:13:00,
2013-03-17 12:16:00,65.2,40.3,29.86,SSW,202,0.0,0.0,40,0.00,,---,0.00,VWS V14.01,2013-03-17 16:16:00,
2013-03-17 12:17:00,65.2,40.3,29.86,SSW,202,0.0,0.0,40,0.00,,---,0.00,VWS V14.01,2013-03-17 16:17:00,
2013-03-17 12:18:00,65.6,40.7,29.86,SSW,202,0.0,0.0,40,0.00,,---,0.00,VWS V14.01,2013-03-17 16:18:00,
2013-03-17 12:22:00,65.8,40.8,29.86,SSW,202,0.0,0.0,40,0.00,,---,0.00,VWS V14.01,2013-03-17 16:22:00,
2013-03-17 12:23:00,66.1,41.1,29.86,SSW,202,0.0,0.0,40,0.00,,---,0.00,VWS V14.01,2013-03-17 16:23:00,
2013-03-17 12:27:00,66.5,41.5,29.86,SW,225,6.4,6.4,40,0.00,,---,0.00,VWS V14.01,2013-03-17 16:27:00,
2013-03-17 12:28:00,66.5,41.5,29.86,SW,225,6.4,6.4,40,0.00,,---,0.00,VWS V14.01,2013-03-17 16:28:00,
2013-03-17 12:29:00,66.5,41.5,29.86,SW,225,6.4,6.4,40,0.00,,---,0.00,VWS V14.01,2013-03-17 16:29:00,
2013-03-17 12:32:00,66.5,40.8,29.86,SSW,202,0.0,0.0,39,0.00,,---,0.00,VWS V14.01,2013-03-17 16:32:00,
2013-03-17 12:33:00,66.7,41.0,29.86,WSW,248,0.0,0.0,39,0.00,,---,0.00,VWS V14.01,2013-03-17 16:33:00,
2013-03-17 12:34:00,66.7,41.0,29.86,WSW,248,0.0,0.0,39,0.00,,---,0.00,VWS V14.01,2013-03-17 16:34:00,
2013-03-17 12:38:00,66.7,40.3,29.86,West,270,0.0,0.0,38,0.00,,---,0.00,VWS V14.01,2013-03-17 16:38:00,
2013-03-17 12:39:00,66.7,40.3,29.86,SSW,202,0.0,6.7,38,0.00,,---,0.00,VWS V14.01,2013-03-17 16:39:00,
2013-03-17 12:43:00,66.7,40.3,29.86,West,270,0.0,0.0,38,0.00,,---,0.00,VWS V14.01,2013-03-17 16:43:00,
2013-03-17 12:44:00,66.9,40.5,29.86,SSW,202,0.0,0.0,38,0.00,,---,0.00,VWS V14.01,2013-03-17 16:44:00,
2013-03-17 12:48:00,67.4,41.6,29.86,South,180,0.0,0.0,39,0.00,,---,0.00,VWS V14.01,2013-03-17 16:48:00,
2013-03-17 12:49:00,67.4,41.6,29.85,South,180,0.0,0.0,39,0.00,,---,0.00,VWS V14.01,2013-03-17 16:49:00,
2013-03-17 12:53:00,67.4,40.2,29.85,SSW,202,0.0,0.0,37,0.00,,---,0.00,VWS V14.01,2013-03-17 16:53:00,
2013-03-17 12:54:00,67.4,40.9,29.85,South,180,7.6,7.6,38,0.00,,---,0.00,VWS V14.01,2013-03-17 16:54:00,
2013-03-17 12:55:00,67.4,40.9,29.85,South,180,7.6,7.6,38,0.00,,---,0.00,VWS V14.01,2013-03-17 16:55:00,
2013-03-17 12:58:00,67.8,42.0,29.85,South,180,7.3,7.3,39,0.00,,---,0.00,VWS V14.01,2013-03-17 16:58:00,
2013-03-17 13:00:00,67.8,42.0,29.85,South,180,7.3,7.3,39,0.00,,---,0.00,VWS V14.01,2013-03-17 17:00:00,
2013-03-17 13:04:00,68.1,42.2,29.84,South,180,6.9,6.9,39,0.00,,---,0.00,VWS V14.01,2013-03-17 17:04:00,
2013-03-17 13:05:00,68.1,41.6,29.84,SW,225,3.5,6.9,38,0.00,,---,0.00,VWS V14.01,2013-03-17 17:05:00,
2013-03-17 13:09:00,68.3,41.7,29.84,SSE,158,6.2,6.2,38,0.00,,---,0.00,VWS V14.01,2013-03-17 17:09:00,
2013-03-17 13:10:00,68.3,41.7,29.84,South,180,7.6,7.6,38,0.00,,---,0.00,VWS V14.01,2013-03-17 17:10:00,
2013-03-17 13:15:00,69.0,41.7,29.83,South,180,7.3,7.3,37,0.00,,---,0.00,VWS V14.01,2013-03-17 17:15:00,
2013-03-17 13:16:00,69.0,41.7,29.83,South,180,7.3,7.3,37,0.00,,---,0.00,VWS V14.01,2013-03-17 17:16:00,
2013-03-17 13:20:00,69.4,42.0,29.83,South,180,6.2,6.2,37,0.00,,---,0.00,VWS V14.01,2013-03-17 17:20:00,
2013-03-17 13:21:00,69.4,42.0,29.83,South,180,6.2,6.2,37,0.00,,---,0.00,VWS V14.01,2013-03-17 17:21:00,
2013-03-17 13:25:00,69.0,40.2,29.83,South,180,4.9,4.9,35,0.00,,---,0.00,VWS V14.01,2013-03-17 17:25:00,
2013-03-17 13:26:00,69.0,40.2,29.83,South,180,4.9,4.9,35,0.00,,---,0.00,VWS V14.01,2013-03-17 17:26:00,
2013-03-17 13:30:00,69.4,42.0,29.83,SSW,202,6.9,6.9,37,0.00,,---,0.00,VWS V14.01,2013-03-17 17:30:00,
2013-03-17 13:31:00,69.4,42.0,29.83,SSW,202,6.9,6.9,37,0.00,,---,0.00,VWS V14.01,2013-03-17 17:31:00,
2013-03-17 13:32:00,69.4,42.0,29.83,SSW,202,6.9,6.9,37,0.00,,---,0.00,VWS V14.01,2013-03-17 17:32:00,
2013-03-17 13:36:00,69.9,41.8,29.83,SSW,202,0.0,7.6,36,0.00,,---,0.00,VWS V14.01,2013-03-17 17:36:00,
2013-03-17 13:37:00,70.3,42.8,29.83,South,180,12.5,12.5,37,0.00,,---,0.00,VWS V14.01,2013-03-17 17:37:00,
2013-03-17 13:41:00,70.3,41.4,29.83,SW,225,5.5,5.5,35,0.00,,---,0.00,VWS V14.01,2013-03-17 17:41:00,
2013-03-17 13:42:00,70.3,41.4,29.83,SW,225,5.5,5.5,35,0.00,,---,0.00,VWS V14.01,2013-03-17 17:42:00,
2013-03-17 13:47:00,70.8,42.5,29.83,SSE,158,0.0,0.0,36,0.00,,---,0.00,VWS V14.01,2013-03-17 17:47:00,
2013-03-17 13:52:00,71.0,41.2,29.83,SSW,202,0.0,0.0,34,0.00,,---,0.00,VWS V14.01,2013-03-17 17:52:00,
2013-03-17 13:53:00,70.6,40.9,29.82,SW,225,6.9,6.9,34,0.00,,---,0.00,VWS V14.01,2013-03-17 17:53:00,
2013-03-17 13:57:00,70.5,40.8,29.82,SSW,202,0.0,0.0,34,0.00,,---,0.00,VWS V14.01,2013-03-17 17:57:00,
2013-03-17 13:58:00,70.5,40.8,29.82,SSW,202,0.0,0.0,34,0.00,,---,0.00,VWS V14.01,2013-03-17 17:58:00,
2013-03-17 14:02:00,70.5,40.8,29.81,SSW,202,5.8,5.8,34,0.00,,---,0.00,VWS V14.01,2013-03-17 18:02:00,
2013-03-17 14:03:00,70.6,41.7,29.81,South,180,0.0,0.0,35,0.00,,---,0.00,VWS V14.01,2013-03-17 18:03:00,
2013-03-17 14:08:00,71.0,41.2,29.81,SSE,158,0.0,6.0,34,0.00,,---,0.00,VWS V14.01,2013-03-17 18:08:00,
2013-03-17 14:09:00,71.0,41.2,29.81,SSE,158,0.0,0.0,34,0.00,,---,0.00,VWS V14.01,2013-03-17 18:09:00,
2013-03-17 14:13:00,71.4,41.6,29.82,SSW,202,10.0,10.0,34,0.00,,---,0.00,VWS V14.01,2013-03-17 18:13:00,
2013-03-17 14:14:00,71.4,41.6,29.82,SSW,202,10.0,10.0,34,0.00,,---,0.00,VWS V14.01,2013-03-17 18:14:00,
2013-03-17 14:18:00,71.7,41.9,29.81,South,180,0.0,0.0,34,0.00,,---,0.00,VWS V14.01,2013-03-17 18:18:00,
2013-03-17 14:19:00,71.7,41.9,29.81,South,180,0.0,0.0,34,0.00,,---,0.00,VWS V14.01,2013-03-17 18:19:00,
2013-03-17 14:20:00,71.7,41.9,29.81,North,0,0.0,0.0,34,0.00,,---,0.00,VWS V14.01,2013-03-17 18:20:00,
2013-03-17 14:24:00,72.3,42.4,29.81,South,180,0.0,6.4,34,0.00,,---,0.00,VWS V14.01,2013-03-17 18:24:00,
2013-03-17 14:25:00,72.3,42.4,29.81,South,180,0.0,0.0,34,0.00,,---,0.00,VWS V14.01,2013-03-17 18:25:00,
2013-03-17 14:29:00,72.4,41.7,29.80,East,90,0.0,0.0,33,0.00,,---,0.00,VWS V14.01,2013-03-17 18:29:00,
2013-03-17 14:30:00,72.4,41.7,29.80,East,90,0.0,0.0,33,0.00,,---,0.00,VWS V14.01,2013-03-17 18:30:00,
2013-03-17 14:31:00,72.6,41.9,29.80,SSE,158,6.0,6.0,33,0.00,,---,0.00,VWS V14.01,2013-03-17 18:31:00,
2013-03-17 14:34:00,73.0,42.2,29.80,West,270,0.0,0.0,33,0.00,,---,0.00,VWS V14.01,2013-03-17 18:34:00,
2013-03-17 14:35:00,73.0,42.2,29.80,West,270,0.0,0.0,33,0.00,,---,0.00,VWS V14.01,2013-03-17 18:35:00,
2013-03-17 14:37:00,73.0,42.2,29.80,West,270,0.0,0.0,33,0.00,,---,0.00,VWS V14.01,2013-03-17 18:37:00,
2013-03-17 14:39:00,72.1,40.7,29.79,SSE,158,5.8,5.8,32,0.00,,---,0.00,VWS V14.01,2013-03-17 18:39:00,
2013-03-17 14:40:00,72.1,40.7,29.80,SSE,158,5.8,5.8,32,0.00,,---,0.00,VWS V14.01,2013-03-17 18:40:00,
2013-03-17 14:41:00,72.3,41.6,29.80,South,180,11.8,11.8,33,0.00,,---,0.00,VWS V14.01,2013-03-17 18:41:00,
2013-03-17 14:42:00,72.3,41.6,29.80,South,180,11.8,11.8,33,0.00,,---,0.00,VWS V14.01,2013-03-17 18:42:00,
2013-03-17 14:45:00,71.9,40.5,29.80,SSW,202,14.0,14.0,32,0.00,,---,0.00,VWS V14.01,2013-03-17 18:45:00,
2013-03-17 14:47:00,72.1,41.4,29.79,WSW,248,3.8,3.8,33,0.00,,---,0.00,VWS V14.01,2013-03-17 18:47:00,
2013-03-17 14:50:00,71.5,40.9,29.79,SSE,158,5.3,5.3,33,0.00,,---,0.00,VWS V14.01,2013-03-17 18:50:00,
2013-03-17 14:52:00,71.4,41.6,29.78,WSW,248,2.9,5.3,34,0.00,,---,0.00,VWS V14.01,2013-03-17 18:52:00,
2013-03-17 14:53:00,71.4,41.6,29.78,WSW,248,2.9,2.9,34,0.00,,---,0.00,VWS V14.01,2013-03-17 18:53:00,
2013-03-17 14:55:00,71.5,41.7,29.78,SSE,158,3.5,3.5,34,0.00,,---,0.00,VWS V14.01,2013-03-17 18:55:00,
2013-03-17 14:58:00,71.4,41.6,29.78,South,180,4.2,4.2,34,0.00,,---,0.00,VWS V14.01,2013-03-17 18:58:00,
2013-03-17 15:00:00,71.0,41.2,29.78,WSW,248,4.9,4.9,34,0.00,,---,0.00,VWS V14.01,2013-03-17 19:00:00,
2013-03-17 15:03:00,71.2,41.4,29.78,South,180,0.0,0.0,34,0.00,,---,0.00,VWS V14.01,2013-03-17 19:03:00,
2013-03-17 15:05:00,71.2,41.4,29.78,SSE,158,7.6,7.6,34,0.00,,---,0.00,VWS V14.01,2013-03-17 19:05:00,
2013-03-17 15:06:00,71.2,41.4,29.78,SSE,158,7.6,7.6,34,0.00,,---,0.00,VWS V14.01,2013-03-17 19:06:00,
2013-03-17 15:08:00,71.0,41.2,29.78,South,180,5.8,5.8,34,0.00,,---,0.00,VWS V14.01,2013-03-17 19:08:00,
2013-03-17 15:09:00,71.4,41.6,29.78,SSE,158,1.3,5.8,34,0.00,,---,0.00,VWS V14.01,2013-03-17 19:09:00,
2013-03-17 15:11:00,71.4,41.6,29.78,SSE,158,1.3,1.3,34,0.00,,---,0.00,VWS V14.01,2013-03-17 19:11:00,
2013-03-17 15:14:00,71.7,42.6,29.77,SSE,158,7.3,7.3,35,0.00,,---,0.00,VWS V14.01,2013-03-17 19:14:00,
2013-03-17 15:15:00,71.7,42.6,29.78,SSE,158,7.3,7.3,35,0.00,,---,0.00,VWS V14.01,2013-03-17 19:15:00,
2013-03-17 15:16:00,72.1,43.0,29.77,SSE,158,5.5,5.5,35,0.00,,---,0.00,VWS V14.01,2013-03-17 19:16:00,
2013-03-17 15:19:00,72.3,43.1,29.78,SSE,158,8.9,8.9,35,0.00,,---,0.00,VWS V14.01,2013-03-17 19:19:00,
2013-03-17 15:20:00,72.3,43.1,29.78,SSE,158,8.9,8.9,35,0.00,,---,0.00,VWS V14.01,2013-03-17 19:20:00,
2013-03-17 15:22:00,72.1,41.4,29.78,SSW,202,0.0,0.0,33,0.00,,---,0.00,VWS V14.01,2013-03-17 19:22:00,
2013-03-17 15:24:00,71.9,41.3,29.78,SSW,202,0.0,0.0,33,0.00,,---,0.00,VWS V14.01,2013-03-17 19:24:00,
2013-03-17 15:25:00,71.9,41.3,29.78,SSW,202,0.0,0.0,33,0.00,,---,0.00,VWS V14.01,2013-03-17 19:25:00,
2013-03-17 15:27:00,72.1,42.2,29.78,SSE,158,0.0,0.0,34,0.00,,---,0.00,VWS V14.01,2013-03-17 19:27:00,
2013-03-17 15:30:00,72.3,42.4,29.78,WSW,248,3.8,3.8,34,0.00,,---,0.00,VWS V14.01,2013-03-17 19:30:00,
2013-03-17 15:32:00,72.1,39.8,29.77,SSE,158,0.0,0.0,31,0.00,,---,0.00,VWS V14.01,2013-03-17 19:32:00,
2013-03-17 15:33:00,72.1,39.8,29.77,SSE,158,0.0,0.0,31,0.00,,---,0.00,VWS V14.01,2013-03-17 19:33:00,
2013-03-17 15:35:00,72.3,40.8,29.77,South,180,6.0,6.0,32,0.00,,---,0.00,VWS V14.01,2013-03-17 19:35:00,
2013-03-17 15:38:00,72.1,39.8,29.77,West,270,6.4,6.4,31,0.00,,---,0.00,VWS V14.01,2013-03-17 19:38:00,
2013-03-17 15:40:00,71.9,40.5,29.78,SSW,202,12.5,12.5,32,0.00,,---,0.00,VWS V14.01,2013-03-17 19:40:00,
2013-03-17 15:43:00,71.7,39.5,29.77,SSW,202,12.5,12.5,31,0.00,,---,0.00,VWS V14.01,2013-03-17 19:43:00,
2013-03-17 15:45:00,71.7,38.6,29.77,SSE,158,0.0,6.2,30,0.00,,---,0.00,VWS V14.01,2013-03-17 19:45:00,
2013-03-17 15:48:00,71.7,39.5,29.77,SSE,158,5.3,5.3,31,0.00,,---,0.00,VWS V14.01,2013-03-17 19:48:00,
2013-03-17 15:50:00,71.7,39.5,29.77,SSE,158,11.6,11.6,31,0.00,,---,0.00,VWS V14.01,2013-03-17 19:50:00,
2013-03-17 15:51:00,71.7,39.5,29.77,SSE,158,11.6,11.6,31,0.00,,---,0.00,VWS V14.01,2013-03-17 19:51:00,
2013-03-17 15:53:00,72.3,40.0,29.77,South,180,7.8,10.5,31,0.00,,---,0.00,VWS V14.01,2013-03-17 19:53:00,
2013-03-17 15:56:00,72.3,39.2,29.77,SSE,158,8.0,8.0,30,0.00,,---,0.00,VWS V14.01,2013-03-17 19:56:00,
2013-03-17 15:58:00,72.1,39.8,29.77,South,180,7.3,7.3,31,0.00,,---,0.00,VWS V14.01,2013-03-17 19:58:00,
2013-03-17 15:59:00,72.1,39.8,29.77,South,180,7.3,7.3,31,0.00,,---,0.00,VWS V14.01,2013-03-17 19:59:00,
2013-03-17 16:01:00,72.1,39.8,29.77,South,180,10.9,10.9,31,0.00,,---,0.00,VWS V14.01,2013-03-17 20:01:00,
2013-03-17 16:02:00,72.1,39.8,29.77,South,180,10.9,10.9,31,0.00,,---,0.00,VWS V14.01,2013-03-17 20:02:00,
2013-03-17 16:04:00,71.9,38.8,29.77,South,180,11.6,11.6,30,0.00,,---,0.00,VWS V14.01,2013-03-17 20:04:00,
2013-03-17 16:06:00,71.4,37.5,29.77,SSE,158,11.1,11.6,29,0.00,,---,0.00,VWS V14.01,2013-03-17 20:06:00,
2013-03-17 16:07:00,71.4,37.5,29.77,SSE,158,11.1,11.1,29,0.00,,---,0.00,VWS V14.01,2013-03-17 20:07:00,
2013-03-17 16:09:00,71.4,37.5,29.77,SSE,158,11.1,11.1,29,0.00,,---,0.00,VWS V14.01,2013-03-17 20:09:00,
2013-03-17 16:10:00,71.0,38.0,29.77,SSW,202,13.6,13.6,30,0.00,,---,0.00,VWS V14.01,2013-03-17 20:10:00,
2013-03-17 16:11:00,71.0,37.2,29.77,SSE,158,6.2,6.2,29,0.00,,---,0.00,VWS V14.01,2013-03-17 20:11:00,
2013-03-17 16:13:00,71.0,37.2,29.77,SW,225,5.8,5.8,29,0.00,,---,0.00,VWS V14.01,2013-03-17 20:13:00,
2013-03-17 16:14:00,71.0,37.2,29.77,SW,225,5.8,5.8,29,0.00,,---,0.00,VWS V14.01,2013-03-17 20:14:00,
2013-03-17 16:15:00,71.0,37.2,29.77,SW,225,5.8,5.8,29,0.00,,---,0.00,VWS V14.01,2013-03-17 20:15:00,
2013-03-17 16:16:00,71.0,37.2,29.77,South,180,10.5,10.5,29,0.00,,---,0.00,VWS V14.01,2013-03-17 20:16:00,
2013-03-17 16:18:00,71.2,38.2,29.77,SSE,158,8.0,10.5,30,0.00,,---,0.00,VWS V14.01,2013-03-17 20:18:00,
2013-03-17 16:19:00,71.2,38.2,29.77,SSE,158,8.0,8.0,30,0.00,,---,0.00,VWS V14.01,2013-03-17 20:19:00,
2013-03-17 16:20:00,71.2,38.2,29.77,SSE,158,8.0,8.0,30,0.00,,---,0.00,VWS V14.01,2013-03-17 20:20:00,
2013-03-17 16:22:00,71.5,37.6,29.77,SSE,158,9.8,9.8,29,0.00,,---,0.00,VWS V14.01,2013-03-17 20:22:00,
2013-03-17 16:23:00,71.7,37.8,29.77,SSW,202,14.7,14.7,29,0.00,,---,0.00,VWS V14.01,2013-03-17 20:23:00,
2013-03-17 16:24:00,71.7,37.8,29.77,SSW,202,14.7,14.7,29,0.00,,---,0.00,VWS V14.01,2013-03-17 20:24:00,
2013-03-17 16:25:00,71.5,36.7,29.77,SSW,202,8.9,14.7,28,0.00,,---,0.00,VWS V14.01,2013-03-17 20:25:00,
2013-03-17 16:27:00,71.5,36.7,29.77,SSW,202,8.9,8.9,28,0.00,,---,0.00,VWS V14.01,2013-03-17 20:27:00,
2013-03-17 16:28:00,71.2,36.5,29.77,South,180,0.0,0.0,28,0.00,,---,0.00,VWS V14.01,2013-03-17 20:28:00,
2013-03-17 16:29:00,71.2,36.5,29.77,South,180,0.0,0.0,28,0.00,,---,0.00,VWS V14.01,2013-03-17 20:29:00,
2013-03-17 16:31:00,71.4,36.6,29.77,WSW,248,0.0,0.0,28,0.00,,---,0.00,VWS V14.01,2013-03-17 20:31:00,
2013-03-17 16:32:00,71.5,37.6,29.77,West,270,5.5,5.5,29,0.00,,---,0.00,VWS V14.01,2013-03-17 20:32:00,
2013-03-17 16:34:00,71.5,37.6,29.77,West,270,5.5,5.5,29,0.00,,---,0.00,VWS V14.01,2013-03-17 20:34:00,
2013-03-17 16:36:00,71.5,37.6,29.77,South,180,10.0,10.0,29,0.00,,---,0.00,VWS V14.01,2013-03-17 20:36:00,
2013-03-17 16:37:00,71.5,37.6,29.77,South,180,10.0,10.0,29,0.00,,---,0.00,VWS V14.01,2013-03-17 20:37:00,
2013-03-17 16:39:00,71.5,37.6,29.77,South,180,10.0,10.0,29,0.00,,---,0.00,VWS V14.01,2013-03-17 20:39:00,
2013-03-17 16:40:00,71.5,37.6,29.77,South,180,10.0,10.0,29,0.00,,---,0.00,VWS V14.01,2013-03-17 20:40:00,
2013-03-17 16:41:00,71.7,36.9,29.76,South,180,9.3,9.3,28,0.00,,---,0.00,VWS V14.01,2013-03-17 20:41:00,
2013-03-17 16:42:00,71.7,36.9,29.77,South,180,9.3,9.3,28,0.00,,---,0.00,VWS V14.01,2013-03-17 20:42:00,
2013-03-17 16:44:00,72.1,38.1,29.77,South,180,8.5,8.5,29,0.00,,---,0.00,VWS V14.01,2013-03-17 20:44:00,
2013-03-17 16:45:00,72.1,38.1,29.77,South,180,8.5,8.5,29,0.00,,---,0.00,VWS V14.01,2013-03-17 20:45:00,
2013-03-17 16:46:00,71.9,38.0,29.77,SSE,158,7.3,7.3,29,0.00,,---,0.00,VWS V14.01,2013-03-17 20:46:00,
2013-03-17 16:48:00,71.7,37.8,29.77,SSW,202,0.0,0.0,29,0.00,,---,0.00,VWS V14.01,2013-03-17 20:48:00,
2013-03-17 16:49:00,71.7,37.8,29.77,SSE,158,9.3,9.3,29,0.00,,---,0.00,VWS V14.01,2013-03-17 20:49:00,
2013-03-17 16:50:00,71.7,37.8,29.77,SSE,158,9.3,9.3,29,0.00,,---,0.00,VWS V14.01,2013-03-17 20:50:00,
2013-03-17 16:52:00,71.4,37.5,29.77,SSE,158,8.7,9.3,29,0.00,,---,0.00,VWS V14.01,2013-03-17 20:52:00,
2013-03-17 16:54:00,71.5,37.6,29.76,SSE,158,10.7,10.7,29,0.00,,---,0.00,VWS V14.01,2013-03-17 20:54:00,
2013-03-17 16:55:00,71.5,37.6,29.76,SSE,158,10.7,10.7,29,0.00,,---,0.00,VWS V14.01,2013-03-17 20:55:00,
2013-03-17 16:57:00,71.4,37.5,29.76,South,180,16.7,16.7,29,0.00,,---,0.00,VWS V14.01,2013-03-17 20:57:00,
2013-03-17 16:59:00,71.5,37.6,29.76,SSW,202,5.8,5.8,29,0.00,,---,0.00,VWS V14.01,2013-03-17 20:59:00,
2013-03-17 17:00:00,71.5,37.6,29.76,SSW,202,10.5,10.5,29,0.00,,---,0.00,VWS V14.01,2013-03-17 21:00:00,
2013-03-17 17:01:00,71.5,37.6,29.76,SSW,202,10.5,10.5,29,0.00,,---,0.00,VWS V14.01,2013-03-17 21:01:00,
2013-03-17 17:02:00,71.4,37.5,29.76,South,180,14.9,14.9,29,0.00,,---,0.00,VWS V14.01,2013-03-17 21:02:00,
2013-03-17 17:05:00,71.7,38.6,29.76,SW,225,9.3,9.3,30,0.00,,---,0.00,VWS V14.01,2013-03-17 21:05:00,
2013-03-17 17:06:00,71.7,38.6,29.76,SW,225,9.3,9.3,30,0.00,,---,0.00,VWS V14.01,2013-03-17 21:06:00,
2013-03-17 17:07:00,71.5,37.6,29.76,South,180,12.3,12.3,29,0.00,,---,0.00,VWS V14.01,2013-03-17 21:07:00,
2013-03-17 17:10:00,71.0,37.2,29.77,South,180,10.5,10.5,29,0.00,,---,0.00,VWS V14.01,2013-03-17 21:10:00,
2013-03-17 17:11:00,71.0,37.2,29.77,South,180,10.5,10.5,29,0.00,,---,0.00,VWS V14.01,2013-03-17 21:11:00,
2013-03-17 17:12:00,71.0,37.2,29.76,South,180,10.5,10.5,29,0.00,,---,0.00,VWS V14.01,2013-03-17 21:12:00,
2013-03-17 17:15:00,71.0,38.0,29.76,SSW,202,14.0,14.0,30,0.00,,---,0.00,VWS V14.01,2013-03-17 21:15:00,
2013-03-17 17:16:00,71.0,38.0,29.76,SSW,202,14.0,14.0,30,0.00,,---,0.00,VWS V14.01,2013-03-17 21:16:00,
2013-03-17 17:17:00,70.8,37.9,29.76,South,180,4.2,14.0,30,0.00,,---,0.00,VWS V14.01,2013-03-17 21:17:00,
2013-03-17 17:20:00,70.6,37.7,29.76,SSW,202,0.0,0.0,30,0.00,,---,0.00,VWS V14.01,2013-03-17 21:20:00,
2013-03-17 17:21:00,70.6,37.7,29.76,SSW,202,0.0,0.0,30,0.00,,---,0.00,VWS V14.01,2013-03-17 21:21:00,
2013-03-17 17:23:00,70.5,37.6,29.76,South,180,8.9,14.9,30,0.00,,---,0.00,VWS V14.01,2013-03-17 21:23:00,
2013-03-17 17:26:00,70.5,37.6,29.76,South,180,4.9,8.9,30,0.00,,---,0.00,VWS V14.01,2013-03-17 21:26:00,
2013-03-17 17:27:00,70.5,37.6,29.76,South,180,4.9,4.9,30,0.00,,---,0.00,VWS V14.01,2013-03-17 21:27:00,
2013-03-17 17:28:00,70.8,37.9,29.76,SSE,158,6.2,6.2,30,0.00,,---,0.00,VWS V14.01,2013-03-17 21:28:00,
2013-03-17 17:31:00,70.6,37.7,29.76,South,180,11.4,11.4,30,0.00,,---,0.00,VWS V14.01,2013-03-17 21:31:00,
2013-03-17 17:32:00,70.8,37.0,29.76,SSW,202,9.8,11.4,29,0.00,,---,0.00,VWS V14.01,2013-03-17 21:32:00,
2013-03-17 17:33:00,70.8,37.0,29.76,SSW,202,9.8,9.8,29,0.00,,---,0.00,VWS V14.01,2013-03-17 21:33:00,
2013-03-17 17:36:00,70.5,36.7,29.76,South,180,6.0,6.0,29,0.00,,---,0.00,VWS V14.01,2013-03-17 21:36:00,
2013-03-17 17:37:00,70.6,37.7,29.76,South,180,8.9,8.9,30,0.00,,---,0.00,VWS V14.01,2013-03-17 21:37:00,
2013-03-17 17:38:00,70.6,37.7,29.76,South,180,8.9,8.9,30,0.00,,---,0.00,VWS V14.01,2013-03-17 21:38:00,
2013-03-17 17:41:00,70.8,37.9,29.76,SSW,202,5.3,5.3,30,0.00,,---,0.00,VWS V14.01,2013-03-17 21:41:00,
2013-03-17 17:43:00,70.6,37.7,29.76,SSW,202,5.3,5.3,30,0.00,,---,0.00,VWS V14.01,2013-03-17 21:43:00,
2013-03-17 17:47:00,70.5,37.6,29.76,SW,225,5.5,5.5,30,0.00,,---,0.00,VWS V14.01,2013-03-17 21:47:00,
2013-03-17 17:48:00,70.5,37.6,29.76,SW,225,5.5,5.5,30,0.00,,---,0.00,VWS V14.01,2013-03-17 21:48:00,
2013-03-17 17:49:00,70.5,37.6,29.76,South,180,0.0,0.0,30,0.00,,---,0.00,VWS V14.01,2013-03-17 21:49:00,
2013-03-17 17:52:00,70.5,37.6,29.76,South,180,0.0,0.0,30,0.00,,---,0.00,VWS V14.01,2013-03-17 21:52:00,
2013-03-17 17:53:00,70.3,38.3,29.76,SSW,202,4.9,4.9,31,0.00,,---,0.00,VWS V14.01,2013-03-17 21:53:00,
2013-03-17 17:54:00,70.3,38.3,29.76,SSW,202,4.9,4.9,31,0.00,,---,0.00,VWS V14.01,2013-03-17 21:54:00,
2013-03-17 17:57:00,69.9,37.9,29.76,SSW,202,6.4,6.4,31,0.00,,---,0.00,VWS V14.01,2013-03-17 21:57:00,
2013-03-17 17:58:00,69.9,37.9,29.76,SSW,202,6.4,6.4,31,0.00,,---,0.00,VWS V14.01,2013-03-17 21:58:00,
2013-03-17 17:59:00,69.9,37.9,29.76,SSW,202,6.4,6.4,31,0.00,,---,0.00,VWS V14.01,2013-03-17 21:59:00,
2013-03-17 18:03:00,69.7,38.5,29.76,WSW,248,5.8,5.8,32,0.00,,---,0.00,VWS V14.01,2013-03-17 22:03:00,
2013-03-17 18:04:00,69.7,38.5,29.76,WSW,248,5.8,5.8,32,0.00,,---,0.00,VWS V14.01,2013-03-17 22:04:00,
2013-03-17 18:05:00,69.7,38.5,29.76,WSW,248,5.8,5.8,32,0.00,,---,0.00,VWS V14.01,2013-03-17 22:05:00,
2013-03-17 18:08:00,69.7,38.5,29.76,SSW,202,8.7,8.7,32,0.00,,---,0.00,VWS V14.01,2013-03-17 22:08:00,
2013-03-17 18:09:00,69.7,38.5,29.76,SSW,202,8.7,8.7,32,0.00,,---,0.00,VWS V14.01,2013-03-17 22:09:00,
2013-03-17 18:10:00,69.7,38.5,29.76,SSW,202,8.7,8.7,32,0.00,,---,0.00,VWS V14.01,2013-03-17 22:10:00,
2013-03-17 18:14:00,69.2,38.1,29.76,South,180,7.3,7.3,32,0.00,,---,0.00,VWS V14.01,2013-03-17 22:14:00,
2013-03-17 18:15:00,69.2,38.1,29.76,SSW,202,8.7,8.7,32,0.00,,---,0.00,VWS V14.01,2013-03-17 22:15:00,
2013-03-17 18:19:00,69.2,38.9,29.76,SE,135,8.5,8.5,33,0.00,,---,0.00,VWS V14.01,2013-03-17 22:19:00,
2013-03-17 18:20:00,69.2,38.1,29.76,SE,135,8.5,8.5,32,0.00,,---,0.00,VWS V14.01,2013-03-17 22:20:00,
2013-03-17 18:21:00,69.2,38.1,29.76,SE,135,8.5,8.5,32,0.00,,---,0.00,VWS V14.01,2013-03-17 22:21:00,
2013-03-17 18:24:00,69.2,38.1,29.76,South,180,2.9,2.9,32,0.00,,---,0.00,VWS V14.01,2013-03-17 22:24:00,
2013-03-17 18:25:00,69.2,38.9,29.77,SSW,202,3.5,3.5,33,0.00,,---,0.00,VWS V14.01,2013-03-17 22:25:00,
2013-03-17 18:26:00,69.2,38.9,29.77,SSW,202,3.5,3.5,33,0.00,,---,0.00,VWS V14.01,2013-03-17 22:26:00,
2013-03-17 18:29:00,69.0,38.7,29.77,SSE,158,4.2,4.2,33,0.00,,---,0.00,VWS V14.01,2013-03-17 22:29:00,
2013-03-17 18:30:00,69.0,38.7,29.77,South,180,6.4,6.4,33,0.00,,---,0.00,VWS V14.01,2013-03-17 22:30:00,
2013-03-17 18:32:00,69.0,38.7,29.77,South,180,5.5,6.4,33,0.00,,---,0.00,VWS V14.01,2013-03-17 22:32:00,
2013-03-17 18:34:00,69.0,38.7,29.77,SW,225,5.1,5.5,33,0.00,,---,0.00,VWS V14.01,2013-03-17 22:34:00,
2013-03-17 18:35:00,69.0,38.7,29.78,SW,225,5.1,5.1,33,0.00,,---,0.00,VWS V14.01,2013-03-17 22:35:00,
2013-03-17 18:38:00,69.0,37.9,29.78,WSW,248,5.3,5.3,32,0.00,,---,0.00,VWS V14.01,2013-03-17 22:38:00,
2013-03-17 18:39:00,69.0,37.9,29.78,WSW,248,5.3,5.3,32,0.00,,---,0.00,VWS V14.01,2013-03-17 22:39:00,
2013-03-17 18:40:00,68.7,37.7,29.78,SSW,202,6.4,6.4,32,0.00,,---,0.00,VWS V14.01,2013-03-17 22:40:00,
2013-03-17 18:43:00,68.7,37.7,29.78,SW,225,8.9,8.9,32,0.00,,---,0.00,VWS V14.01,2013-03-17 22:43:00,
2013-03-17 18:44:00,68.7,37.7,29.78,SSE,158,8.9,8.9,32,0.00,,---,0.00,VWS V14.01,2013-03-17 22:44:00,
2013-03-17 18:45:00,68.7,37.7,29.78,SSE,158,8.9,8.9,32,0.00,,---,0.00,VWS V14.01,2013-03-17 22:45:00,
2013-03-17 18:48:00,68.5,37.5,29.78,NW,315,3.3,3.3,32,0.00,,---,0.00,VWS V14.01,2013-03-17 22:48:00,
2013-03-17 18:50:00,68.5,38.3,29.78,SSW,202,3.5,3.5,33,0.00,,---,0.00,VWS V14.01,2013-03-17 22:50:00,
2013-03-17 18:51:00,68.5,38.3,29.78,SW,225,10.9,10.9,33,0.00,,---,0.00,VWS V14.01,2013-03-17 22:51:00,
2013-03-17 18:53:00,68.7,38.5,29.78,South,180,0.0,0.0,33,0.00,,---,0.00,VWS V14.01,2013-03-17 22:53:00,
2013-03-17 18:55:00,68.7,37.7,29.78,South,180,0.0,0.0,32,0.00,,---,0.00,VWS V14.01,2013-03-17 22:55:00,
2013-03-17 18:56:00,68.7,37.7,29.78,South,180,0.0,0.0,32,0.00,,---,0.00,VWS V14.01,2013-03-17 22:56:00,
2013-03-17 18:59:00,68.5,38.3,29.78,SSE,158,7.6,7.6,33,0.00,,---,0.00,VWS V14.01,2013-03-17 22:59:00,
2013-03-17 19:00:00,68.5,38.3,29.78,SSE,158,7.6,7.6,33,0.00,,---,0.00,VWS V14.01,2013-03-17 23:00:00,
2013-03-17 19:01:00,68.5,38.3,29.78,South,180,0.0,7.6,33,0.00,,---,0.00,VWS V14.01,2013-03-17 23:01:00,
2013-03-17 19:04:00,68.5,39.0,29.78,SSW,202,4.4,4.4,34,0.00,,---,0.00,VWS V14.01,2013-03-17 23:04:00,
2013-03-17 19:05:00,68.7,39.2,29.78,SW,225,5.5,5.5,34,0.00,,---,0.00,VWS V14.01,2013-03-17 23:05:00,
2013-03-17 19:06:00,68.7,39.2,29.78,SW,225,5.5,5.5,34,0.00,,---,0.00,VWS V14.01,2013-03-17 23:06:00,
2013-03-17 19:07:00,68.7,39.2,29.78,SW,225,5.5,5.5,34,0.00,,---,0.00,VWS V14.01,2013-03-17 23:07:00,
2013-03-17 19:09:00,68.5,37.5,29.78,SSW,202,3.5,3.5,32,0.00,,---,0.00,VWS V14.01,2013-03-17 23:09:00,
2013-03-17 19:11:00,68.3,38.1,29.78,South,180,4.2,4.2,33,0.00,,---,0.00,VWS V14.01,2013-03-17 23:11:00,
2013-03-17 19:12:00,68.1,37.9,29.78,SW,225,0.0,4.2,33,0.00,,---,0.00,VWS V14.01,2013-03-17 23:12:00,
2013-03-17 19:14:00,68.1,37.9,29.78,South,180,0.0,0.0,33,0.00,,---,0.00,VWS V14.01,2013-03-17 23:14:00,
2013-03-17 19:16:00,68.1,37.9,29.78,South,180,0.0,0.0,33,0.00,,---,0.00,VWS V14.01,2013-03-17 23:16:00,
2013-03-17 19:17:00,68.1,37.9,29.78,South,180,0.0,0.0,33,0.00,,---,0.00,VWS V14.01,2013-03-17 23:17:00,
2013-03-17 19:18:00,68.1,37.9,29.78,South,180,0.0,0.0,33,0.00,,---,0.00,VWS V14.01,2013-03-17 23:18:00,
2013-03-17 19:20:00,68.1,37.9,29.78,South,180,0.0,0.0,33,0.00,,---,0.00,VWS V14.01,2013-03-17 23:20:00,
2013-03-17 19:22:00,67.9,37.8,29.78,South,180,10.0,10.0,33,0.00,,---,0.00,VWS V14.01,2013-03-17 23:22:00,
2013-03-17 19:23:00,67.9,37.8,29.78,South,180,12.9,12.9,33,0.00,,---,0.00,VWS V14.01,2013-03-17 23:23:00,
2013-03-17 19:25:00,67.9,37.8,29.79,South,180,12.9,12.9,33,0.00,,---,0.00,VWS V14.01,2013-03-17 23:25:00,
2013-03-17 19:27:00,67.6,37.5,29.78,South,180,8.2,11.6,33,0.00,,---,0.00,VWS V14.01,2013-03-17 23:27:00,
2013-03-17 19:28:00,67.6,37.5,29.78,South,180,8.2,11.6,33,0.00,,---,0.00,VWS V14.01,2013-03-17 23:28:00,
2013-03-17 19:30:00,67.8,37.7,29.78,South,180,8.7,8.7,33,0.00,,---,0.00,VWS V14.01,2013-03-17 23:30:00,
2013-03-17 19:33:00,67.4,37.3,29.78,SSW,202,0.0,0.0,33,0.00,,---,0.00,VWS V14.01,2013-03-17 23:33:00,
2013-03-17 19:34:00,67.2,37.2,29.79,SSE,158,4.9,4.9,33,0.00,,---,0.00,VWS V14.01,2013-03-17 23:34:00,
2013-03-17 19:35:00,67.2,37.9,29.79,South,180,8.7,8.7,34,0.00,,---,0.00,VWS V14.01,2013-03-17 23:35:00,
2013-03-17 19:38:00,67.2,37.9,29.78,SSE,158,0.0,8.7,34,0.00,,---,0.00,VWS V14.01,2013-03-17 23:38:00,
2013-03-17 19:39:00,67.2,37.9,29.79,SSE,158,0.0,0.0,34,0.00,,---,0.00,VWS V14.01,2013-03-17 23:39:00,
2013-03-17 19:41:00,67.4,38.1,29.78,South,180,0.0,0.0,34,0.00,,---,0.00,VWS V14.01,2013-03-17 23:41:00,
2013-03-17 19:43:00,67.4,38.1,29.79,SSE,158,0.0,0.0,34,0.00,,---,0.00,VWS V14.01,2013-03-17 23:43:00,
2013-03-17 19:44:00,67.6,38.3,29.79,South,180,2.9,2.9,34,0.00,,---,0.00,VWS V14.01,2013-03-17 23:44:00,
2013-03-17 19:46:00,67.6,38.3,29.79,SSE,158,5.1,5.1,34,0.00,,---,0.00,VWS V14.01,2013-03-17 23:46:00,
2013-03-17 19:48:00,67.4,38.1,29.79,South,180,0.0,0.0,34,0.00,,---,0.00,VWS V14.01,2013-03-17 23:48:00,
2013-03-17 19:50:00,67.4,38.8,29.79,South,180,10.7,10.7,35,0.00,,---,0.00,VWS V14.01,2013-03-17 23:50:00,
2013-03-17 19:52:00,67.4,38.8,29.79,South,180,10.7,10.7,35,0.00,,---,0.00,VWS V14.01,2013-03-17 23:52:00,
2013-03-17 19:53:00,67.2,38.7,29.79,SW,225,0.0,0.0,35,0.00,,---,0.00,VWS V14.01,2013-03-17 23:53:00,
2013-03-17 19:54:00,67.2,38.7,29.79,SW,225,0.0,0.0,35,0.00,,---,0.00,VWS V14.01,2013-03-17 23:54:00,
2013-03-17 19:55:00,67.0,38.5,29.79,South,180,6.2,6.2,35,0.00,,---,0.00,VWS V14.01,2013-03-17 23:55:00,
2013-03-17 19:57:00,67.0,38.5,29.80,WSW,248,0.0,6.2,35,0.00,,---,0.00,VWS V14.01,2013-03-17 23:57:00,
2013-03-17 19:58:00,67.4,38.8,29.80,SSW,202,8.5,8.5,35,0.00,,---,0.00,VWS V14.01,2013-03-17 23:58:00,
2013-03-17 19:59:00,67.4,38.8,29.80,SSW,202,8.5,8.5,35,0.00,,---,0.00,VWS V14.01,2013-03-17 23:59:00,
2013-03-17 20:00:00,67.4,38.8,29.80,SSW,202,8.5,8.5,35,0.00,,---,0.00,VWS V14.01,2013-03-18 00:00:00,
2013-03-17 20:02:00,67.2,38.7,29.80,SSW,202,0.0,0.0,35,0.00,,---,0.00,VWS V14.01,2013-03-18 00:02:00,
2013-03-17 20:03:00,67.2,38.7,29.80,SSW,202,0.0,0.0,35,0.00,,---,0.00,VWS V14.01,2013-03-18 00:03:00,
2013-03-17 20:04:00,67.2,38.7,29.80,SSW,202,0.0,0.0,35,0.00,,---,0.00,VWS V14.01,2013-03-18 00:04:00,
2013-03-17 20:05:00,67.4,38.8,29.80,SW,225,0.0,0.0,35,0.00,,---,0.00,VWS V14.01,2013-03-18 00:05:00,
2013-03-17 20:08:00,67.4,38.8,29.80,South,180,1.7,1.7,35,0.00,,---,0.00,VWS V14.01,2013-03-18 00:08:00,
2013-03-17 20:09:00,67.4,38.8,29.80,South,180,1.7,1.7,35,0.00,,---,0.00,VWS V14.01,2013-03-18 00:09:00,
2013-03-17 20:10:00,67.6,39.0,29.80,SW,225,0.0,1.7,35,0.00,,---,0.00,VWS V14.01,2013-03-18 00:10:00,
2013-03-17 20:13:00,67.2,38.7,29.80,SW,225,0.0,0.0,35,0.00,,---,0.00,VWS V14.01,2013-03-18 00:13:00,
2013-03-17 20:14:00,66.9,38.4,29.80,South,180,2.9,2.9,35,0.00,,---,0.00,VWS V14.01,2013-03-18 00:14:00,
2013-03-17 20:15:00,66.9,38.4,29.80,South,180,2.9,2.9,35,0.00,,---,0.00,VWS V14.01,2013-03-18 00:15:00,
2013-03-17 20:16:00,66.3,37.8,29.80,West,270,0.0,2.9,35,0.00,,---,0.00,VWS V14.01,2013-03-18 00:16:00,
2013-03-17 20:18:00,66.3,37.8,29.80,West,270,0.0,0.0,35,0.00,,---,0.00,VWS V14.01,2013-03-18 00:18:00,
2013-03-17 20:19:00,66.1,38.4,29.80,South,180,0.0,0.0,36,0.00,,---,0.00,VWS V14.01,2013-03-18 00:19:00,
2013-03-17 20:20:00,66.1,38.4,29.80,South,180,0.0,0.0,36,0.00,,---,0.00,VWS V14.01,2013-03-18 00:20:00,
2013-03-17 20:22:00,66.1,38.4,29.80,South,180,0.0,0.0,36,0.00,,---,0.00,VWS V14.01,2013-03-18 00:22:00,
2013-03-17 20:24:00,65.8,38.8,29.81,South,180,0.0,0.0,37,0.00,,---,0.00,VWS V14.01,2013-03-18 00:24:00,
2013-03-17 20:25:00,65.6,38.7,29.81,SSW,202,0.0,0.0,37,0.00,,---,0.00,VWS V14.01,2013-03-18 00:25:00,
2013-03-17 20:27:00,65.4,38.5,29.81,SSW,202,0.0,0.0,37,0.00,,---,0.00,VWS V14.01,2013-03-18 00:27:00,
2013-03-17 20:29:00,65.6,38.7,29.81,SSW,202,0.0,0.0,37,0.00,,---,0.00,VWS V14.01,2013-03-18 00:29:00,
2013-03-17 20:30:00,65.1,38.9,29.81,WSW,248,0.0,0.0,38,0.00,,---,0.00,VWS V14.01,2013-03-18 00:30:00,
2013-03-17 20:33:00,65.1,38.9,29.81,WSW,248,0.0,0.0,38,0.00,,---,0.00,VWS V14.01,2013-03-18 00:33:00,
2013-03-17 20:34:00,65.1,38.9,29.81,SSW,202,0.0,0.0,38,0.00,,---,0.00,VWS V14.01,2013-03-18 00:34:00,
2013-03-17 20:35:00,65.1,38.9,29.81,SSW,202,0.0,0.0,38,0.00,,---,0.00,VWS V14.01,2013-03-18 00:35:00,
2013-03-17 20:38:00,64.9,38.7,29.81,SSW,202,0.0,0.0,38,0.00,,---,0.00,VWS V14.01,2013-03-18 00:38:00,
2013-03-17 20:39:00,64.9,38.7,29.81,SSW,202,0.0,0.0,38,0.00,,---,0.00,VWS V14.01,2013-03-18 00:39:00,
2013-03-17 20:41:00,65.1,39.5,29.81,SSW,202,0.0,0.0,39,0.00,,---,0.00,VWS V14.01,2013-03-18 00:41:00,
2013-03-17 20:43:00,64.9,38.7,29.81,South,180,0.0,0.0,38,0.00,,---,0.00,VWS V14.01,2013-03-18 00:43:00,
2013-03-17 20:44:00,64.9,39.4,29.81,South,180,0.0,0.0,39,0.00,,---,0.00,VWS V14.01,2013-03-18 00:44:00,
2013-03-17 20:45:00,64.9,39.4,29.81,South,180,0.0,0.0,39,0.00,,---,0.00,VWS V14.01,2013-03-18 00:45:00,
2013-03-17 20:46:00,64.9,39.4,29.81,South,180,2.9,2.9,39,0.00,,---,0.00,VWS V14.01,2013-03-18 00:46:00,
2013-03-17 20:49:00,64.5,39.7,29.81,South,180,0.0,0.0,40,0.00,,---,0.00,VWS V14.01,2013-03-18 00:49:00,
2013-03-17 20:50:00,64.5,39.7,29.81,South,180,0.0,0.0,40,0.00,,---,0.00,VWS V14.01,2013-03-18 00:50:00,
2013-03-17 20:51:00,64.5,39.7,29.81,South,180,0.0,0.0,40,0.00,,---,0.00,VWS V14.01,2013-03-18 00:51:00,
2013-03-17 20:54:00,64.5,39.7,29.81,South,180,6.0,6.0,40,0.00,,---,0.00,VWS V14.01,2013-03-18 00:54:00,
2013-03-17 20:55:00,64.5,39.7,29.81,South,180,1.7,1.7,40,0.00,,---,0.00,VWS V14.01,2013-03-18 00:55:00,
2013-03-17 20:57:00,64.5,39.7,29.81,South,180,0.0,0.0,40,0.00,,---,0.00,VWS V14.01,2013-03-18 00:57:00,
2013-03-17 20:59:00,64.3,39.5,29.81,South,180,0.0,0.0,40,0.00,,---,0.00,VWS V14.01,2013-03-18 00:59:00,
2013-03-17 21:00:00,64.3,39.5,29.81,South,180,0.0,0.0,40,0.00,,---,0.00,VWS V14.01,2013-03-18 01:00:00,
2013-03-17 21:02:00,64.3,39.5,29.81,South,180,0.0,0.0,40,0.00,,---,0.00,VWS V14.01,2013-03-18 01:02:00,
2013-03-17 21:03:00,64.3,39.5,29.81,SSE,158,0.0,0.0,40,0.00,,---,0.00,VWS V14.01,2013-03-18 01:03:00,
2013-03-17 21:04:00,64.3,39.5,29.81,SSE,158,0.0,0.0,40,0.00,,---,0.00,VWS V14.01,2013-03-18 01:04:00,
2013-03-17 21:06:00,64.3,39.5,29.81,South,180,4.0,4.0,40,0.00,,---,0.00,VWS V14.01,2013-03-18 01:06:00,
2013-03-17 21:07:00,64.3,39.5,29.81,South,180,4.0,4.0,40,0.00,,---,0.00,VWS V14.01,2013-03-18 01:07:00,
2013-03-17 21:08:00,64.2,39.4,29.82,SW,225,3.8,4.0,40,0.00,,---,0.00,VWS V14.01,2013-03-18 01:08:00,
2013-03-17 21:09:00,64.2,39.4,29.81,SSE,158,0.0,3.8,40,0.00,,---,0.00,VWS V14.01,2013-03-18 01:09:00,
2013-03-17 21:11:00,64.2,39.4,29.81,SSE,158,0.0,0.0,40,0.00,,---,0.00,VWS V14.01,2013-03-18 01:11:00,
2013-03-17 21:12:00,64.0,39.2,29.81,SE,135,0.0,0.0,40,0.00,,---,0.00,VWS V14.01,2013-03-18 01:12:00,
2013-03-17 21:13:00,64.0,39.2,29.81,SE,135,0.0,0.0,40,0.00,,---,0.00,VWS V14.01,2013-03-18 01:13:00,
2013-03-17 21:14:00,63.8,39.7,29.81,South,180,0.0,0.0,41,0.00,,---,0.00,VWS V14.01,2013-03-18 01:14:00,
2013-03-17 21:16:00,63.8,39.7,29.81,South,180,0.0,0.0,41,0.00,,---,0.00,VWS V14.01,2013-03-18 01:16:00,
2013-03-17 21:18:00,63.6,39.5,29.81,SSW,202,5.5,5.5,41,0.00,,---,0.00,VWS V14.01,2013-03-18 01:18:00,
2013-03-17 21:19:00,63.6,39.5,29.81,SSW,202,5.5,5.5,41,0.00,,---,0.00,VWS V14.01,2013-03-18 01:19:00,
2013-03-17 21:20:00,63.6,39.5,29.81,South,180,4.2,5.5,41,0.00,,---,0.00,VWS V14.01,2013-03-18 01:20:00,
2013-03-17 21:21:00,63.8,39.7,29.81,South,180,4.2,4.2,41,0.00,,---,0.00,VWS V14.01,2013-03-18 01:21:00,
2013-03-17 21:24:00,63.6,39.5,29.81,South,180,4.0,4.0,41,0.00,,---,0.00,VWS V14.01,2013-03-18 01:24:00,
2013-03-17 21:25:00,63.6,39.5,29.81,SSE,158,0.0,0.0,41,0.00,,---,0.00,VWS V14.01,2013-03-18 01:25:00,
2013-03-17 21:27:00,63.6,39.5,29.81,South,180,10.0,10.0,41,0.00,,---,0.00,VWS V14.01,2013-03-18 01:27:00,
2013-03-17 21:29:00,63.6,39.5,29.81,South,180,0.0,0.0,41,0.00,,---,0.00,VWS V14.01,2013-03-18 01:29:00,
2013-03-17 21:30:00,63.3,39.2,29.81,South,180,0.0,0.0,41,0.00,,---,0.00,VWS V14.01,2013-03-18 01:30:00,
2013-03-17 21:32:00,63.3,39.2,29.81,South,180,2.6,2.6,41,0.00,,---,0.00,VWS V14.01,2013-03-18 01:32:00,
2013-03-17 21:34:00,63.3,39.2,29.81,South,180,2.6,2.6,41,0.00,,---,0.00,VWS V14.01,2013-03-18 01:34:00,
2013-03-17 21:35:00,63.3,39.2,29.81,South,180,0.0,0.0,41,0.00,,---,0.00,VWS V14.01,2013-03-18 01:35:00,
2013-03-17 21:37:00,63.3,39.2,29.81,SSW,202,4.0,4.0,41,0.00,,---,0.00,VWS V14.01,2013-03-18 01:37:00,
2013-03-17 21:39:00,63.3,39.2,29.81,SSW,202,4.0,4.0,41,0.00,,---,0.00,VWS V14.01,2013-03-18 01:39:00,
2013-03-17 21:40:00,63.3,39.2,29.81,South,180,3.8,4.0,41,0.00,,---,0.00,VWS V14.01,2013-03-18 01:40:00,
2013-03-17 21:41:00,63.3,39.2,29.81,South,180,3.8,3.8,41,0.00,,---,0.00,VWS V14.01,2013-03-18 01:41:00,
2013-03-17 21:42:00,63.1,38.4,29.81,South,180,0.0,0.0,40,0.00,,---,0.00,VWS V14.01,2013-03-18 01:42:00,
2013-03-17 21:45:00,63.1,39.0,29.81,South,180,5.3,5.3,41,0.00,,---,0.00,VWS V14.01,2013-03-18 01:45:00,
2013-03-17 21:48:00,62.9,38.9,29.81,South,180,2.0,4.9,41,0.00,,---,0.00,VWS V14.01,2013-03-18 01:48:00,
2013-03-17 21:50:00,62.9,38.9,29.81,South,180,0.0,2.0,41,0.00,,---,0.00,VWS V14.01,2013-03-18 01:50:00,
2013-03-17 21:53:00,62.7,38.7,29.81,South,180,4.4,4.4,41,0.00,,---,0.00,VWS V14.01,2013-03-18 01:53:00,
2013-03-17 21:55:00,62.7,38.7,29.81,South,180,0.0,0.0,41,0.00,,---,0.00,VWS V14.01,2013-03-18 01:55:00,
2013-03-17 21:58:00,62.7,38.7,29.81,South,180,6.0,6.0,41,0.00,,---,0.00,VWS V14.01,2013-03-18 01:58:00,
2013-03-17 22:01:00,62.5,38.5,29.81,SSW,202,0.0,0.0,41,0.00,,---,0.00,VWS V14.01,2013-03-18 02:01:00,
2013-03-17 22:03:00,62.7,38.7,29.81,South,180,0.0,0.0,41,0.00,,---,0.00,VWS V14.01,2013-03-18 02:03:00,
2013-03-17 22:06:00,62.7,38.7,29.81,South,180,0.0,0.0,41,0.00,,---,0.00,VWS V14.01,2013-03-18 02:06:00,
2013-03-17 22:08:00,62.7,38.7,29.81,South,180,0.0,0.0,41,0.00,,---,0.00,VWS V14.01,2013-03-18 02:08:00,
2013-03-17 22:09:00,62.7,38.7,29.81,South,180,0.0,0.0,41,0.00,,---,0.00,VWS V14.01,2013-03-18 02:09:00,
2013-03-17 22:11:00,62.5,38.5,29.81,SW,225,0.0,0.0,41,0.00,,---,0.00,VWS V14.01,2013-03-18 02:11:00,
2013-03-17 22:12:00,62.5,38.5,29.81,SW,225,0.0,0.0,41,0.00,,---,0.00,VWS V14.01,2013-03-18 02:12:00,
2013-03-17 22:13:00,62.5,38.5,29.81,South,180,0.0,0.0,41,0.00,,---,0.00,VWS V14.01,2013-03-18 02:13:00,
2013-03-17 22:14:00,62.5,38.5,29.81,South,180,0.0,0.0,41,0.00,,---,0.00,VWS V14.01,2013-03-18 02:14:00,
2013-03-17 22:16:00,62.4,38.4,29.81,South,180,0.0,0.0,41,0.00,,---,0.00,VWS V14.01,2013-03-18 02:16:00,
2013-03-17 22:18:00,62.5,38.5,29.81,South,180,0.0,0.0,41,0.00,,---,0.00,VWS V14.01,2013-03-18 02:18:00,
2013-03-17 22:19:00,62.5,38.5,29.81,South,180,0.0,0.0,41,0.00,,---,0.00,VWS V14.01,2013-03-18 02:19:00,
2013-03-17 22:22:00,62.2,38.2,29.81,South,180,0.0,0.0,41,0.00,,---,0.00,VWS V14.01,2013-03-18 02:22:00,
2013-03-17 22:23:00,62.2,38.2,29.81,South,180,0.0,0.0,41,0.00,,---,0.00,VWS V14.01,2013-03-18 02:23:00,
2013-03-17 22:24:00,62.2,38.2,29.81,South,180,0.0,0.0,41,0.00,,---,0.00,VWS V14.01,2013-03-18 02:24:00,
2013-03-17 22:25:00,62.2,38.2,29.81,South,180,0.0,0.0,41,0.00,,---,0.00,VWS V14.01,2013-03-18 02:25:00,
2013-03-17 22:27:00,62.0,38.0,29.81,South,180,0.0,0.0,41,0.00,,---,0.00,VWS V14.01,2013-03-18 02:27:00,
2013-03-17 22:29:00,62.0,38.0,29.81,South,180,0.0,0.0,41,0.00,,---,0.00,VWS V14.01,2013-03-18 02:29:00,
2013-03-17 22:30:00,62.0,38.0,29.81,South,180,0.0,0.0,41,0.00,,---,0.00,VWS V14.01,2013-03-18 02:30:00,
2013-03-17 22:32:00,62.0,38.0,29.81,South,180,0.0,0.0,41,0.00,,---,0.00,VWS V14.01,2013-03-18 02:32:00,
2013-03-17 22:34:00,62.0,38.0,29.81,South,180,0.0,0.0,41,0.00,,---,0.00,VWS V14.01,2013-03-18 02:34:00,
2013-03-17 22:35:00,62.0,38.0,29.81,South,180,0.0,0.0,41,0.00,,---,0.00,VWS V14.01,2013-03-18 02:35:00,
2013-03-17 22:37:00,61.8,37.9,29.81,South,180,0.0,0.0,41,0.00,,---,0.00,VWS V14.01,2013-03-18 02:37:00,
2013-03-17 22:39:00,61.5,37.6,29.80,South,180,0.0,0.0,41,0.00,,---,0.00,VWS V14.01,2013-03-18 02:39:00,
2013-03-17 22:40:00,61.5,37.6,29.80,South,180,0.0,0.0,41,0.00,,---,0.00,VWS V14.01,2013-03-18 02:40:00,
2013-03-17 22:42:00,61.5,37.6,29.81,South,180,0.0,0.0,41,0.00,,---,0.00,VWS V14.01,2013-03-18 02:42:00,
2013-03-17 22:45:00,61.5,37.6,29.81,South,180,0.0,0.0,41,0.00,,---,0.00,VWS V14.01,2013-03-18 02:45:00,
2013-03-17 22:47:00,61.5,37.6,29.81,South,180,0.0,0.0,41,0.00,,---,0.00,VWS V14.01,2013-03-18 02:47:00,
2013-03-17 22:48:00,61.3,37.4,29.81,South,180,0.0,0.0,41,0.00,,---,0.00,VWS V14.01,2013-03-18 02:48:00,
2013-03-17 22:50:00,61.3,38.0,29.81,South,180,0.0,0.0,42,0.00,,---,0.00,VWS V14.01,2013-03-18 02:50:00,
2013-03-17 22:52:00,61.3,38.0,29.81,South,180,0.0,0.0,42,0.00,,---,0.00,VWS V14.01,2013-03-18 02:52:00,
2013-03-17 22:53:00,61.3,38.0,29.81,South,180,0.0,0.0,42,0.00,,---,0.00,VWS V14.01,2013-03-18 02:53:00,
2013-03-17 22:55:00,60.7,37.5,29.81,South,180,0.0,0.0,42,0.00,,---,0.00,VWS V14.01,2013-03-18 02:55:00,
2013-03-17 22:57:00,60.7,37.5,29.81,South,180,0.0,0.0,42,0.00,,---,0.00,VWS V14.01,2013-03-18 02:57:00,
2013-03-17 22:58:00,60.7,37.5,29.81,South,180,0.0,0.0,42,0.00,,---,0.00,VWS V14.01,2013-03-18 02:58:00,
2013-03-17 23:01:00,60.9,37.7,29.81,South,180,0.0,0.0,42,0.00,,---,0.00,VWS V14.01,2013-03-18 03:01:00,
2013-03-17 23:03:00,60.9,37.7,29.81,South,180,0.0,0.0,42,0.00,,---,0.00,VWS V14.01,2013-03-18 03:03:00,
2013-03-17 23:07:00,60.4,37.8,29.80,South,180,0.0,0.0,43,0.00,,---,0.00,VWS V14.01,2013-03-18 03:07:00,
2013-03-17 23:08:00,60.4,37.8,29.80,South,180,0.0,0.0,43,0.00,,---,0.00,VWS V14.01,2013-03-18 03:08:00,
2013-03-17 23:09:00,60.4,37.8,29.80,South,180,0.0,0.0,43,0.00,,---,0.00,VWS V14.01,2013-03-18 03:09:00,
2013-03-17 23:12:00,60.4,37.8,29.80,South,180,0.0,0.0,43,0.00,,---,0.00,VWS V14.01,2013-03-18 03:12:00,
2013-03-17 23:13:00,60.6,38.0,29.81,South,180,0.0,0.0,43,0.00,,---,0.00,VWS V14.01,2013-03-18 03:13:00,
2013-03-17 23:15:00,60.6,38.0,29.81,South,180,0.0,0.0,43,0.00,,---,0.00,VWS V14.01,2013-03-18 03:15:00,
2013-03-17 23:17:00,60.4,37.8,29.81,South,180,0.0,0.0,43,0.00,,---,0.00,VWS V14.01,2013-03-18 03:17:00,
2013-03-17 23:18:00,60.2,37.6,29.81,South,180,0.0,0.0,43,0.00,,---,0.00,VWS V14.01,2013-03-18 03:18:00,
2013-03-17 23:20:00,60.2,37.6,29.81,South,180,0.0,0.0,43,0.00,,---,0.00,VWS V14.01,2013-03-18 03:20:00,
2013-03-17 23:21:00,60.2,37.6,29.81,South,180,0.0,0.0,43,0.00,,---,0.00,VWS V14.01,2013-03-18 03:21:00,
2013-03-17 23:22:00,59.8,37.3,29.81,South,180,0.0,0.0,43,0.00,,---,0.00,VWS V14.01,2013-03-18 03:22:00,
2013-03-17 23:24:00,59.8,37.3,29.81,South,180,0.0,0.0,43,0.00,,---,0.00,VWS V14.01,2013-03-18 03:24:00,
2013-03-17 23:26:00,60.0,37.5,29.81,South,180,0.0,0.0,43,0.00,,---,0.00,VWS V14.01,2013-03-18 03:26:00,
2013-03-17 23:27:00,60.0,37.5,29.81,South,180,0.0,0.0,43,0.00,,---,0.00,VWS V14.01,2013-03-18 03:27:00,
2013-03-17 23:29:00,60.0,37.5,29.81,South,180,0.0,0.0,43,0.00,,---,0.00,VWS V14.01,2013-03-18 03:29:00,
2013-03-17 23:31:00,60.2,37.6,29.82,South,180,0.0,0.0,43,0.00,,---,0.00,VWS V14.01,2013-03-18 03:31:00,
2013-03-17 23:32:00,60.2,37.6,29.82,South,180,0.0,0.0,43,0.00,,---,0.00,VWS V14.01,2013-03-18 03:32:00,
2013-03-17 23:33:00,60.0,37.5,29.81,South,180,0.0,0.0,43,0.00,,---,0.00,VWS V14.01,2013-03-18 03:33:00,
2013-03-17 23:35:00,60.0,37.5,29.81,South,180,0.0,0.0,43,0.00,,---,0.00,VWS V14.01,2013-03-18 03:35:00,
2013-03-17 23:37:00,60.2,37.6,29.81,South,180,0.0,0.0,43,0.00,,---,0.00,VWS V14.01,2013-03-18 03:37:00,
2013-03-17 23:38:00,60.2,37.6,29.81,South,180,0.0,0.0,43,0.00,,---,0.00,VWS V14.01,2013-03-18 03:38:00,
2013-03-17 23:40:00,60.0,37.5,29.81,SSW,202,0.0,0.0,43,0.00,,---,0.00,VWS V14.01,2013-03-18 03:40:00,
2013-03-17 23:42:00,59.8,37.3,29.81,SSW,202,0.0,0.0,43,0.00,,---,0.00,VWS V14.01,2013-03-18 03:42:00,
2013-03-17 23:43:00,59.8,37.3,29.81,SSW,202,0.0,0.0,43,0.00,,---,0.00,VWS V14.01,2013-03-18 03:43:00,
2013-03-17 23:45:00,59.7,37.2,29.81,SSW,202,0.0,0.0,43,0.00,,---,0.00,VWS V14.01,2013-03-18 03:45:00,
2013-03-17 23:47:00,59.7,37.2,29.81,SSW,202,0.0,0.0,43,0.00,,---,0.00,VWS V14.01,2013-03-18 03:47:00,
2013-03-17 23:48:00,59.7,37.2,29.81,SSW,202,0.0,0.0,43,0.00,,---,0.00,VWS V14.01,2013-03-18 03:48:00,
2013-03-17 23:50:00,59.7,37.2,29.81,SSW,202,0.0,0.0,43,0.00,,---,0.00,VWS V14.01,2013-03-18 03:50:00,
2013-03-17 23:52:00,59.5,37.0,29.81,SSW,202,0.0,0.0,43,0.00,,---,0.00,VWS V14.01,2013-03-18 03:52:00,
2013-03-17 23:53:00,59.5,37.0,29.81,SSW,202,0.0,0.0,43,0.00,,---,0.00,VWS V14.01,2013-03-18 03:53:00,
2013-03-17 23:56:00,59.3,37.4,29.81,SSW,202,0.0,0.0,44,0.00,,---,0.00,VWS V14.01,2013-03-18 03:56:00,
2013-03-17 23:58:00,59.3,37.4,29.81,SSW,202,0.0,0.0,44,0.00,,---,0.00,VWS V14.01,2013-03-18 03:58:00,
2013-03-17 23:59:00,59.3,37.4,29.81,SSW,202,0.0,0.0,44,0.00,,---,0.00,VWS V14.01,2013-03-18 03:59:00,